Time,TemperatureF,DewpointF,PressureIn,WindDirection,WindDirectionDegrees,WindSpeedMPH,WindSpeedGustMPH,Humidity,HourlyPrecipIn,Conditions,Clouds,dailyrainin,SoftwareType,DateUTC
2013-02-11 00:00:00,48.2,45.4,30.39,North,356,4.0,4.5,90,-99.99,,OVC080,-99.99,VWS V14.01,2013-02-11 05:00:00,
2013-02-11 00:01:00,48.2,45.4,30.39,North,356,4.5,4.5,90,-99.99,,OVC080,-99.99,VWS V14.01,2013-02-11 05:01:00,
2013-02-11 00:05:00,48.2,45.4,30.39,North,356,5.4,5.4,90,-99.99,,OVC080,-99.99,VWS V14.01,2013-02-11 05:05:00,
2013-02-11 00:06:00,48.2,45.7,30.39,North,356,3.6,3.6,91,-99.99,,OVC080,-99.99,VWS V14.01,2013-02-11 05:06:00,
2013-02-11 00:10:00,48.4,46.2,30.39,North,356,4.5,4.5,92,-99.99,,OVC080,-99.99,VWS V14.01,2013-02-11 05:10:00,
2013-02-11 00:11:00,48.4,46.2,30.39,North,356,4.0,5.4,92,-99.99,,OVC080,-99.99,VWS V14.01,2013-02-11 05:11:00,
2013-02-11 00:13:00,48.4,46.2,30.39,North,356,3.6,7.4,92,-99.99,,-RA,-99.99,VWS V14.01,2013-02-11 05:13:00,
2013-02-11 00:15:00,48.4,46.5,30.39,North,356,6.7,6.9,93,-99.99,,-RA,-99.99,VWS V14.01,2013-02-11 05:15:00,
2013-02-11 00:16:00,48.4,46.5,30.39,North,356,4.5,4.5,93,-99.99,,-RA,-99.99,VWS V14.01,2013-02-11 05:16:00,
2013-02-11 00:18:00,48.4,46.5,30.39,North,356,6.7,6.7,93,-99.99,,-RA,-99.99,VWS V14.01,2013-02-11 05:18:00,
2013-02-11 00:21:00,48.6,46.9,30.36,North,356,6.9,6.9,94,-99.99,,-RA,-99.99,VWS V14.01,2013-02-11 05:21:00,
2013-02-11 00:23:00,48.6,46.9,30.36,North,356,4.0,6.7,94,-99.99,,-RA,-99.99,VWS V14.01,2013-02-11 05:23:00,
2013-02-11 00:26:00,48.7,47.4,30.36,North,356,3.1,5.4,95,-99.99,,-RA,-99.99,VWS V14.01,2013-02-11 05:26:00,
2013-02-11 00:27:00,48.7,47.4,30.36,North,356,4.0,5.4,95,-99.99,,-RA,-99.99,VWS V14.01,2013-02-11 05:27:00,
2013-02-11 00:28:00,48.7,47.4,30.36,North,356,4.5,6.3,95,-99.99,,-RA,-99.99,VWS V14.01,2013-02-11 05:28:00,
2013-02-11 00:30:00,48.7,47.4,30.36,North,356,3.6,5.8,95,-99.99,,-RA,-99.99,VWS V14.01,2013-02-11 05:30:00,
2013-02-11 00:32:00,48.7,47.4,30.36,North,356,3.6,5.8,95,-99.99,,-RA,-99.99,VWS V14.01,2013-02-11 05:32:00,
2013-02-11 00:33:00,48.7,47.4,30.36,North,356,3.6,5.8,95,-99.99,,-RA,-99.99,VWS V14.01,2013-02-11 05:33:00,
2013-02-11 00:35:00,48.7,47.4,30.36,North,356,5.4,6.3,95,-99.99,,-RA,-99.99,VWS V14.01,2013-02-11 05:35:00,
2013-02-11 00:36:00,48.7,47.4,30.36,North,356,4.5,5.4,95,-99.99,,-RA,-99.99,VWS V14.01,2013-02-11 05:36:00,
2013-02-11 00:38:00,48.7,47.4,30.36,North,356,6.7,6.7,95,-99.99,,-RA,-99.99,VWS V14.01,2013-02-11 05:38:00,
2013-02-11 00:40:00,48.7,47.7,30.36,North,356,5.8,6.9,96,-99.99,,-RA,-99.99,VWS V14.01,2013-02-11 05:40:00,
2013-02-11 00:42:00,48.7,47.7,30.36,North,356,6.3,8.7,96,-99.99,,-RA,-99.99,VWS V14.01,2013-02-11 05:42:00,
2013-02-11 00:43:00,48.7,47.7,30.36,North,356,7.4,7.4,96,-99.99,,-RA,-99.99,VWS V14.01,2013-02-11 05:43:00,
2013-02-11 00:44:00,48.9,47.8,30.36,North,356,5.8,6.3,96,-99.99,,-RA,-99.99,VWS V14.01,2013-02-11 05:44:00,
2013-02-11 00:46:00,48.9,47.8,30.36,North,356,4.5,4.5,96,-99.99,,-RA,-99.99,VWS V14.01,2013-02-11 05:46:00,
2013-02-11 00:48:00,48.9,47.8,30.36,North,356,6.9,7.8,96,-99.99,,-RA,-99.99,VWS V14.01,2013-02-11 05:48:00,
2013-02-11 00:49:00,48.9,47.8,30.36,North,356,5.4,5.4,96,-99.99,,-RA,-99.99,VWS V14.01,2013-02-11 05:49:00,
2013-02-11 00:52:00,49.1,48.0,30.33,North,356,3.6,8.3,96,-99.99,,-RA,-99.99,VWS V14.01,2013-02-11 05:52:00,
2013-02-11 00:53:00,49.1,48.3,30.33,North,356,6.9,7.4,97,-99.99,,-RA,-99.99,VWS V14.01,2013-02-11 05:53:00,
2013-02-11 00:54:00,49.3,48.5,30.33,North,356,5.4,6.3,97,-99.99,,-RA,-99.99,VWS V14.01,2013-02-11 05:54:00,
2013-02-11 00:56:00,49.3,48.5,30.33,North,356,5.4,5.4,97,-99.99,,-RA,-99.99,VWS V14.01,2013-02-11 05:56:00,
2013-02-11 00:59:00,49.5,48.7,30.33,North,356,6.3,6.7,97,-99.99,,-RA,-99.99,VWS V14.01,2013-02-11 05:59:00,
2013-02-11 01:00:00,49.5,48.7,30.33,North,356,0.0,7.8,97,-99.99,,-RA,-99.99,VWS V14.01,2013-02-11 06:00:00,
2013-02-11 01:02:00,49.5,48.7,30.33,North,356,7.8,10.1,97,-99.99,,-RA,-99.99,VWS V14.01,2013-02-11 06:02:00,
2013-02-11 01:05:00,49.6,48.8,30.33,North,356,6.3,6.9,97,-99.99,,-RA,-99.99,VWS V14.01,2013-02-11 06:05:00,
2013-02-11 01:06:00,49.8,49.0,30.33,North,356,6.7,10.1,97,-99.99,,-RA,-99.99,VWS V14.01,2013-02-11 06:06:00,
2013-02-11 01:07:00,49.8,49.0,30.33,North,356,5.4,10.5,97,-99.99,,-RA,-99.99,VWS V14.01,2013-02-11 06:07:00,
2013-02-11 01:10:00,49.8,49.0,30.33,North,356,8.3,8.3,97,-99.99,,-RA,-99.99,VWS V14.01,2013-02-11 06:10:00,
2013-02-11 01:11:00,49.8,49.0,30.33,North,356,4.5,5.8,97,-99.99,,-RA,-99.99,VWS V14.01,2013-02-11 06:11:00,
2013-02-11 01:14:00,50.0,49.2,30.33,North,356,7.8,7.8,97,-99.99,,-RA,-99.99,VWS V14.01,2013-02-11 06:14:00,
2013-02-11 01:15:00,50.0,49.2,30.33,North,356,6.3,8.7,97,-99.99,,-RA,-99.99,VWS V14.01,2013-02-11 06:15:00,
2013-02-11 01:16:00,50.0,49.2,30.33,North,356,6.7,9.2,97,-99.99,,-RA,-99.99,VWS V14.01,2013-02-11 06:16:00,
2013-02-11 01:18:00,50.2,49.4,30.33,North,356,5.8,8.3,97,-99.99,,-RA,-99.99,VWS V14.01,2013-02-11 06:18:00,
2013-02-11 01:19:00,50.2,49.4,30.33,North,356,4.9,6.7,97,-99.99,,-RA,-99.99,VWS V14.01,2013-02-11 06:19:00,
2013-02-11 01:21:00,50.2,49.4,30.33,North,356,7.8,7.8,97,-99.99,,-RA,-99.99,VWS V14.01,2013-02-11 06:21:00,
2013-02-11 01:22:00,50.2,49.4,30.33,North,356,5.4,7.8,97,-99.99,,-RA,-99.99,VWS V14.01,2013-02-11 06:22:00,
2013-02-11 01:23:00,50.2,49.4,30.33,North,356,6.9,7.8,97,-99.99,,-RA,-99.99,VWS V14.01,2013-02-11 06:23:00,
2013-02-11 01:24:00,50.2,49.4,30.33,North,356,6.3,7.4,97,-99.99,,-RA,-99.99,VWS V14.01,2013-02-11 06:24:00,
2013-02-11 01:27:00,50.4,49.5,30.33,North,356,7.8,8.7,97,-99.99,,-RA,-99.99,VWS V14.01,2013-02-11 06:27:00,
2013-02-11 01:28:00,50.4,49.5,30.33,North,356,4.9,8.7,97,-99.99,,-RA,-99.99,VWS V14.01,2013-02-11 06:28:00,
2013-02-11 01:29:00,50.4,49.5,30.33,North,356,5.8,8.3,97,-99.99,,-RA,-99.99,VWS V14.01,2013-02-11 06:29:00,
2013-02-11 01:30:00,50.4,49.5,30.33,North,356,7.8,8.3,97,-99.99,,-RA,-99.99,VWS V14.01,2013-02-11 06:30:00,
2013-02-11 01:32:00,50.5,49.7,30.33,North,356,6.3,6.3,97,-99.99,,-RA,-99.99,VWS V14.01,2013-02-11 06:32:00,
2013-02-11 01:33:00,50.5,49.7,30.33,North,356,8.3,8.7,97,-99.99,,-RA,-99.99,VWS V14.01,2013-02-11 06:33:00,
2013-02-11 01:34:00,50.5,49.7,30.33,North,356,4.9,4.9,97,-99.99,,-RA,-99.99,VWS V14.01,2013-02-11 06:34:00,
2013-02-11 01:35:00,50.5,49.7,30.33,North,356,3.1,4.5,97,-99.99,,-RA,-99.99,VWS V14.01,2013-02-11 06:35:00,
2013-02-11 01:37:00,50.5,49.7,30.33,North,356,4.9,6.3,97,-99.99,,-RA,-99.99,VWS V14.01,2013-02-11 06:37:00,
2013-02-11 01:38:00,50.5,49.7,30.33,North,356,6.9,6.9,97,-99.99,,-RA,-99.99,VWS V14.01,2013-02-11 06:38:00,
2013-02-11 01:40:00,50.5,49.7,30.33,North,356,5.4,5.8,97,-99.99,,-RA,-99.99,VWS V14.01,2013-02-11 06:40:00,
2013-02-11 01:41:00,50.5,49.7,30.33,North,356,3.6,3.6,97,-99.99,,-RA,-99.99,VWS V14.01,2013-02-11 06:41:00,
2013-02-11 01:42:00,50.7,49.9,30.33,North,356,4.0,5.8,97,-99.99,,-RA,-99.99,VWS V14.01,2013-02-11 06:42:00,
2013-02-11 01:43:00,50.7,49.9,30.33,North,356,6.3,6.9,97,-99.99,,-RA,-99.99,VWS V14.01,2013-02-11 06:43:00,
2013-02-11 01:46:00,50.9,50.1,30.33,North,356,6.9,8.7,97,-99.99,,-RA,-99.99,VWS V14.01,2013-02-11 06:46:00,
2013-02-11 01:48:00,50.9,50.1,30.33,North,356,4.5,8.3,97,-99.99,,-RA,-99.99,VWS V14.01,2013-02-11 06:48:00,
2013-02-11 01:49:00,50.9,50.1,30.33,North,356,4.5,5.8,97,-99.99,,-RA,-99.99,VWS V14.01,2013-02-11 06:49:00,
2013-02-11 01:51:00,50.9,50.1,30.33,North,356,5.4,10.5,97,-99.99,,-RA,-99.99,VWS V14.01,2013-02-11 06:51:00,
2013-02-11 01:52:00,50.9,50.1,30.33,North,356,3.6,6.7,97,-99.99,,-RA,-99.99,VWS V14.01,2013-02-11 06:52:00,
2013-02-11 01:53:00,51.1,50.3,30.33,North,356,4.9,5.4,97,-99.99,,-RA,-99.99,VWS V14.01,2013-02-11 06:53:00,
2013-02-11 01:54:00,51.1,50.3,30.33,North,356,5.4,5.8,97,-99.99,,-RA,-99.99,VWS V14.01,2013-02-11 06:54:00,
2013-02-11 01:56:00,51.1,50.3,30.33,North,356,5.4,5.4,97,-99.99,,-RA,-99.99,VWS V14.01,2013-02-11 06:56:00,
2013-02-11 01:58:00,51.3,50.4,30.33,North,356,5.8,7.4,97,-99.99,,-RA,-99.99,VWS V14.01,2013-02-11 06:58:00,
2013-02-11 01:59:00,51.3,50.4,30.33,North,356,4.9,7.4,97,-99.99,,-RA,-99.99,VWS V14.01,2013-02-11 06:59:00,
2013-02-11 02:01:00,51.3,50.4,30.33,North,356,5.4,8.7,97,-99.99,,-RA,-99.99,VWS V14.01,2013-02-11 07:01:00,
2013-02-11 02:02:00,51.3,50.4,30.33,North,356,5.8,8.7,97,-99.99,,-RA,-99.99,VWS V14.01,2013-02-11 07:02:00,
2013-02-11 02:03:00,51.3,50.4,30.33,North,356,4.0,8.7,97,-99.99,,-RA,-99.99,VWS V14.01,2013-02-11 07:03:00,
2013-02-11 02:05:00,51.3,50.4,30.33,North,356,7.8,7.8,97,-99.99,,-RA,-99.99,VWS V14.01,2013-02-11 07:05:00,
2013-02-11 02:06:00,51.3,50.4,30.33,North,356,7.4,10.1,97,-99.99,,-RA,-99.99,VWS V14.01,2013-02-11 07:06:00,
2013-02-11 02:08:00,51.3,50.4,30.33,North,356,5.4,9.2,97,-99.99,,-RA,-99.99,VWS V14.01,2013-02-11 07:08:00,
2013-02-11 02:09:00,51.4,50.6,30.33,North,356,4.9,5.8,97,-99.99,,-RA,-99.99,VWS V14.01,2013-02-11 07:09:00,
2013-02-11 02:11:00,51.4,50.6,30.33,North,356,4.9,9.6,97,-99.99,,-RA,-99.99,VWS V14.01,2013-02-11 07:11:00,
2013-02-11 02:13:00,51.4,50.6,30.33,North,356,9.2,9.2,97,-99.99,,-RA,-99.99,VWS V14.01,2013-02-11 07:13:00,
2013-02-11 02:14:00,51.4,50.6,30.33,North,356,4.5,5.8,97,-99.99,,-RA,-99.99,VWS V14.01,2013-02-11 07:14:00,
2013-02-11 02:16:00,51.4,50.6,30.33,North,356,4.0,4.9,97,-99.99,,-RA,-99.99,VWS V14.01,2013-02-11 07:16:00,
2013-02-11 02:18:00,51.4,50.6,30.33,North,356,4.5,4.9,97,-99.99,,-RA,-99.99,VWS V14.01,2013-02-11 07:18:00,
2013-02-11 02:19:00,51.4,50.6,30.33,North,356,6.9,6.9,97,-99.99,,-RA,-99.99,VWS V14.01,2013-02-11 07:19:00,
2013-02-11 02:22:00,51.4,50.6,30.33,North,356,8.3,8.3,97,-99.99,,-RA,-99.99,VWS V14.01,2013-02-11 07:22:00,
2013-02-11 02:23:00,51.6,50.8,30.33,North,356,4.5,6.9,97,-99.99,,-RA,-99.99,VWS V14.01,2013-02-11 07:23:00,
2013-02-11 02:24:00,51.6,50.8,30.33,North,356,4.0,4.9,97,-99.99,,-RA,-99.99,VWS V14.01,2013-02-11 07:24:00,
2013-02-11 02:25:00,51.6,50.8,30.33,North,356,4.5,7.4,97,-99.99,,-RA,-99.99,VWS V14.01,2013-02-11 07:25:00,
2013-02-11 02:28:00,51.6,50.8,30.33,North,356,9.2,9.2,97,-99.99,,-RA,-99.99,VWS V14.01,2013-02-11 07:28:00,
2013-02-11 02:29:00,51.6,50.8,30.33,North,356,4.9,9.2,97,-99.99,,-RA,-99.99,VWS V14.01,2013-02-11 07:29:00,
2013-02-11 02:30:00,51.6,50.8,30.33,North,356,5.4,7.4,97,-99.99,,-RA,-99.99,VWS V14.01,2013-02-11 07:30:00,
2013-02-11 02:31:00,51.8,51.0,30.33,North,356,6.3,7.4,97,-99.99,,-RA,-99.99,VWS V14.01,2013-02-11 07:31:00,
2013-02-11 02:33:00,51.8,51.0,30.33,North,356,3.6,4.9,97,-99.99,,-RA,-99.99,VWS V14.01,2013-02-11 07:33:00,
2013-02-11 02:34:00,51.8,51.0,30.33,North,356,5.8,6.7,97,-99.99,,-RA,-99.99,VWS V14.01,2013-02-11 07:34:00,
2013-02-11 02:35:00,51.8,51.0,30.30,North,356,5.8,7.8,97,-99.99,,-RA,-99.99,VWS V14.01,2013-02-11 07:35:00,
2013-02-11 02:36:00,51.8,51.0,30.30,North,356,7.8,10.1,97,-99.99,,-RA,-99.99,VWS V14.01,2013-02-11 07:36:00,
2013-02-11 02:39:00,52.0,51.2,30.30,North,356,6.7,7.8,97,-99.99,,-RA,-99.99,VWS V14.01,2013-02-11 07:39:00,
2013-02-11 02:40:00,52.0,51.2,30.30,North,356,5.8,5.8,97,-99.99,,-RA,-99.99,VWS V14.01,2013-02-11 07:40:00,
2013-02-11 02:41:00,52.0,51.2,30.30,North,356,6.9,8.7,97,-99.99,,-RA,-99.99,VWS V14.01,2013-02-11 07:41:00,
2013-02-11 02:42:00,52.0,51.2,30.30,North,356,6.9,6.9,97,-99.99,,-RA,-99.99,VWS V14.01,2013-02-11 07:42:00,
2013-02-11 02:46:00,52.2,51.3,30.30,North,356,4.5,6.9,97,-99.99,,-RA,-99.99,VWS V14.01,2013-02-11 07:46:00,
2013-02-11 02:47:00,52.2,51.3,30.30,North,356,11.2,11.2,97,-99.99,,-RA,-99.99,VWS V14.01,2013-02-11 07:47:00,
2013-02-11 02:52:00,52.5,51.7,30.30,North,356,4.0,5.8,97,-99.99,,-RA,-99.99,VWS V14.01,2013-02-11 07:52:00,
2013-02-11 02:53:00,52.5,51.7,30.30,North,356,4.5,4.9,97,-99.99,,-RA,-99.99,VWS V14.01,2013-02-11 07:53:00,
2013-02-11 02:54:00,52.5,51.7,30.30,North,356,11.6,11.6,97,-99.99,,-RA,-99.99,VWS V14.01,2013-02-11 07:54:00,
2013-02-11 02:57:00,52.7,51.9,30.30,North,356,7.4,7.4,97,-99.99,,BKN120,-99.99,VWS V14.01,2013-02-11 07:57:00,
2013-02-11 02:58:00,52.7,51.9,30.30,North,356,5.8,5.8,97,-99.99,,BKN120,-99.99,VWS V14.01,2013-02-11 07:58:00,
2013-02-11 02:59:00,52.7,51.9,30.30,North,356,7.8,9.6,97,-99.99,,BKN120,-99.99,VWS V14.01,2013-02-11 07:59:00,
2013-02-11 03:00:00,52.9,52.0,30.30,North,356,4.9,7.8,97,-99.99,,BKN120,-99.99,VWS V14.01,2013-02-11 08:00:00,
2013-02-11 03:03:00,52.9,52.0,30.30,North,356,6.7,8.3,97,-99.99,,BKN120,-99.99,VWS V14.01,2013-02-11 08:03:00,
2013-02-11 03:04:00,52.9,52.0,30.30,North,356,5.8,5.8,97,-99.99,,BKN120,-99.99,VWS V14.01,2013-02-11 08:04:00,
2013-02-11 03:06:00,53.1,52.2,30.30,North,356,5.4,6.9,97,-99.99,,BKN120,-99.99,VWS V14.01,2013-02-11 08:06:00,
2013-02-11 03:09:00,53.1,52.2,30.30,North,356,5.4,5.8,97,-99.99,,BKN120,-99.99,VWS V14.01,2013-02-11 08:09:00,
2013-02-11 03:10:00,53.1,52.2,30.30,North,356,3.1,4.5,97,-99.99,,BKN120,-99.99,VWS V14.01,2013-02-11 08:10:00,
2013-02-11 03:11:00,53.1,52.2,30.30,North,356,5.8,5.8,97,-99.99,,BKN120,-99.99,VWS V14.01,2013-02-11 08:11:00,
2013-02-11 03:15:00,53.1,52.2,30.30,North,356,5.4,6.9,97,-99.99,,BKN120,-99.99,VWS V14.01,2013-02-11 08:15:00,
2013-02-11 03:18:00,53.2,52.4,30.30,North,356,7.8,10.5,97,-99.99,,BKN120,-99.99,VWS V14.01,2013-02-11 08:18:00,
2013-02-11 03:20:00,53.2,52.4,30.30,North,356,5.4,7.4,97,-99.99,,BKN120,-99.99,VWS V14.01,2013-02-11 08:20:00,
2013-02-11 03:21:00,53.2,52.4,30.30,North,356,3.6,7.4,97,-99.99,,BKN120,-99.99,VWS V14.01,2013-02-11 08:21:00,
2013-02-11 03:23:00,53.4,52.6,30.30,North,356,5.4,7.8,97,-99.99,,BKN120,-99.99,VWS V14.01,2013-02-11 08:23:00,
2013-02-11 03:26:00,53.4,52.6,30.30,North,356,5.4,6.9,97,-99.99,,BKN120,-99.99,VWS V14.01,2013-02-11 08:26:00,
2013-02-11 03:28:00,53.6,52.8,30.30,North,356,5.8,8.3,97,-99.99,,BKN120,-99.99,VWS V14.01,2013-02-11 08:28:00,
2013-02-11 03:31:00,53.6,52.8,30.30,North,356,4.5,4.5,97,-99.99,,BKN120,-99.99,VWS V14.01,2013-02-11 08:31:00,
2013-02-11 03:32:00,53.4,52.6,30.30,North,356,4.0,5.4,97,-99.99,,BKN120,-99.99,VWS V14.01,2013-02-11 08:32:00,
2013-02-11 03:33:00,53.4,52.6,30.30,North,356,3.6,5.4,97,-99.99,,BKN120,-99.99,VWS V14.01,2013-02-11 08:33:00,
2013-02-11 03:37:00,53.6,52.8,30.27,North,356,8.3,9.2,97,-99.99,,BKN120,-99.99,VWS V14.01,2013-02-11 08:37:00,
2013-02-11 03:38:00,53.4,52.6,30.27,North,356,6.3,8.3,97,-99.99,,BKN120,-99.99,VWS V14.01,2013-02-11 08:38:00,
2013-02-11 03:39:00,53.6,52.8,30.27,North,356,5.8,7.4,97,-99.99,,BKN120,-99.99,VWS V14.01,2013-02-11 08:39:00,
2013-02-11 03:42:00,53.6,52.8,30.27,North,356,6.3,7.4,97,-99.99,,BKN120,-99.99,VWS V14.01,2013-02-11 08:42:00,
2013-02-11 03:43:00,53.6,52.8,30.27,North,356,4.5,6.3,97,-99.99,,BKN120,-99.99,VWS V14.01,2013-02-11 08:43:00,
2013-02-11 03:44:00,53.6,52.8,30.27,North,356,4.9,6.3,97,-99.99,,BKN120,-99.99,VWS V14.01,2013-02-11 08:44:00,
2013-02-11 03:47:00,53.8,53.0,30.27,North,356,6.3,7.4,97,-99.99,,BKN120,-99.99,VWS V14.01,2013-02-11 08:47:00,
2013-02-11 03:48:00,53.8,53.0,30.27,North,356,5.8,9.6,97,-99.99,,BKN120,-99.99,VWS V14.01,2013-02-11 08:48:00,
2013-02-11 03:49:00,53.8,53.0,30.27,North,356,4.9,9.6,97,-99.99,,BKN120,-99.99,VWS V14.01,2013-02-11 08:49:00,
2013-02-11 03:52:00,53.8,53.0,30.27,North,356,4.0,6.7,97,-99.99,,BKN120,-99.99,VWS V14.01,2013-02-11 08:52:00,
2013-02-11 03:54:00,53.8,53.0,30.27,North,356,0.0,4.5,97,-99.99,,BKN120,-99.99,VWS V14.01,2013-02-11 08:54:00,
2013-02-11 03:58:00,53.8,53.0,30.27,North,356,7.4,8.7,97,-99.99,,-RA,-99.99,VWS V14.01,2013-02-11 08:58:00,
2013-02-11 03:59:00,54.0,53.1,30.27,North,356,3.6,3.6,97,-99.99,,-RA,-99.99,VWS V14.01,2013-02-11 08:59:00,
2013-02-11 04:00:00,54.0,53.1,30.27,North,356,8.3,8.7,97,-99.99,,-RA,-99.99,VWS V14.01,2013-02-11 09:00:00,
2013-02-11 04:04:00,54.0,53.1,30.27,North,356,5.8,8.7,97,-99.99,,-RA,-99.99,VWS V14.01,2013-02-11 09:04:00,
2013-02-11 04:05:00,54.0,53.1,30.27,North,356,6.9,11.0,97,-99.99,,-RA,-99.99,VWS V14.01,2013-02-11 09:05:00,
2013-02-11 04:06:00,54.0,53.1,30.27,North,356,0.0,0.0,97,-99.99,,-RA,-99.99,VWS V14.01,2013-02-11 09:06:00,
2013-02-11 04:09:00,54.0,53.1,30.27,North,356,6.9,9.2,97,-99.99,,-RA,-99.99,VWS V14.01,2013-02-11 09:09:00,
2013-02-11 04:10:00,54.1,53.3,30.27,North,356,5.8,8.3,97,-99.99,,-RA,-99.99,VWS V14.01,2013-02-11 09:10:00,
2013-02-11 04:11:00,54.1,53.3,30.27,North,356,4.5,5.4,97,-99.99,,-RA,-99.99,VWS V14.01,2013-02-11 09:11:00,
2013-02-11 04:12:00,54.1,53.3,30.27,North,356,3.1,5.4,97,-99.99,,-RA,-99.99,VWS V14.01,2013-02-11 09:12:00,
2013-02-11 04:14:00,54.1,53.3,30.27,North,356,4.5,6.9,97,-99.99,,-RA,-99.99,VWS V14.01,2013-02-11 09:14:00,
2013-02-11 04:15:00,54.1,53.3,30.27,North,356,7.8,7.8,97,-99.99,,-RA,-99.99,VWS V14.01,2013-02-11 09:15:00,
2013-02-11 04:16:00,54.1,53.3,30.27,North,356,4.9,6.9,97,-99.99,,-RA,-99.99,VWS V14.01,2013-02-11 09:16:00,
2013-02-11 04:19:00,54.3,53.5,30.27,North,356,0.0,6.7,97,-99.99,,-RA,-99.99,VWS V14.01,2013-02-11 09:19:00,
2013-02-11 04:20:00,54.3,53.5,30.27,North,356,5.4,5.8,97,-99.99,,-RA,-99.99,VWS V14.01,2013-02-11 09:20:00,
2013-02-11 04:21:00,54.3,53.5,30.27,North,356,4.0,7.4,97,-99.99,,-RA,-99.99,VWS V14.01,2013-02-11 09:21:00,
2013-02-11 04:24:00,54.5,53.7,30.27,North,356,4.5,7.4,97,-99.99,,-RA,-99.99,VWS V14.01,2013-02-11 09:24:00,
2013-02-11 04:25:00,54.5,53.7,30.27,North,356,4.5,6.7,97,-99.99,,-RA,-99.99,VWS V14.01,2013-02-11 09:25:00,
2013-02-11 04:27:00,54.5,53.7,30.27,North,356,3.1,3.1,97,-99.99,,-RA,-99.99,VWS V14.01,2013-02-11 09:27:00,
2013-02-11 04:28:00,54.5,53.7,30.27,North,356,9.6,9.6,97,-99.99,,-RA,-99.99,VWS V14.01,2013-02-11 09:28:00,
2013-02-11 04:30:00,54.5,53.7,30.27,North,356,8.3,8.3,97,-99.99,,-RA,-99.99,VWS V14.01,2013-02-11 09:30:00,
2013-02-11 04:31:00,54.5,53.7,30.27,North,356,6.3,11.0,97,-99.99,,-RA,-99.99,VWS V14.01,2013-02-11 09:31:00,
2013-02-11 04:32:00,54.7,53.8,30.27,North,356,6.3,6.3,97,-99.99,,-RA,-99.99,VWS V14.01,2013-02-11 09:32:00,
2013-02-11 04:34:00,54.7,53.8,30.27,North,356,9.6,9.6,97,-99.99,,-RA,-99.99,VWS V14.01,2013-02-11 09:34:00,
2013-02-11 04:36:00,54.9,54.0,30.27,North,356,5.4,5.4,97,-99.99,,-RA,-99.99,VWS V14.01,2013-02-11 09:36:00,
2013-02-11 04:37:00,54.9,54.0,30.27,North,356,6.9,10.5,97,-99.99,,-RA,-99.99,VWS V14.01,2013-02-11 09:37:00,
2013-02-11 04:38:00,54.9,54.0,30.27,North,356,6.3,11.6,97,-99.99,,-RA,-99.99,VWS V14.01,2013-02-11 09:38:00,
2013-02-11 04:40:00,55.0,54.2,30.27,North,356,4.5,10.1,97,-99.99,,-RA,-99.99,VWS V14.01,2013-02-11 09:40:00,
2013-02-11 04:42:00,55.0,54.2,30.27,North,356,5.4,8.7,97,-99.99,,-RA,-99.99,VWS V14.01,2013-02-11 09:42:00,
2013-02-11 04:43:00,55.0,54.2,30.27,North,356,6.7,6.9,97,-99.99,,-RA,-99.99,VWS V14.01,2013-02-11 09:43:00,
2013-02-11 04:44:00,55.0,54.2,30.27,North,356,3.6,5.4,97,-99.99,,-RA,-99.99,VWS V14.01,2013-02-11 09:44:00,
2013-02-11 04:46:00,55.2,54.4,30.27,North,356,8.7,9.6,97,-99.99,,-RA,-99.99,VWS V14.01,2013-02-11 09:46:00,
2013-02-11 04:48:00,55.2,54.4,30.27,North,356,5.4,8.7,97,-99.99,,-RA,-99.99,VWS V14.01,2013-02-11 09:48:00,
2013-02-11 04:49:00,55.2,54.4,30.27,North,356,5.8,8.7,97,-99.99,,-RA,-99.99,VWS V14.01,2013-02-11 09:49:00,
2013-02-11 04:51:00,55.2,54.4,30.27,North,356,0.0,4.5,97,-99.99,,-RA,-99.99,VWS V14.01,2013-02-11 09:51:00,
2013-02-11 04:54:00,55.4,54.6,30.27,North,356,6.9,6.9,97,-99.99,,-RA,-99.99,VWS V14.01,2013-02-11 09:54:00,
2013-02-11 04:56:00,55.4,54.6,30.27,North,356,6.9,8.3,97,-99.99,,-RA,-99.99,VWS V14.01,2013-02-11 09:56:00,
2013-02-11 04:59:00,55.4,54.6,30.27,North,356,5.8,6.7,97,-99.99,,OVC043,-99.99,VWS V14.01,2013-02-11 09:59:00,
2013-02-11 05:00:00,55.4,54.6,30.27,North,356,4.5,6.7,97,-99.99,,OVC043,-99.99,VWS V14.01,2013-02-11 10:00:00,
2013-02-11 05:02:00,55.4,54.6,30.27,North,356,6.3,7.4,97,-99.99,,OVC043,-99.99,VWS V14.01,2013-02-11 10:02:00,
2013-02-11 05:05:00,55.6,54.8,30.27,North,356,4.5,6.7,97,-99.99,,OVC043,-99.99,VWS V14.01,2013-02-11 10:05:00,
2013-02-11 05:07:00,55.6,54.8,30.27,North,356,4.9,5.4,97,-99.99,,OVC043,-99.99,VWS V14.01,2013-02-11 10:07:00,
2013-02-11 05:10:00,55.6,54.8,30.27,North,356,6.7,11.0,97,-99.99,,OVC043,-99.99,VWS V14.01,2013-02-11 10:10:00,
2013-02-11 05:11:00,55.6,54.8,30.27,North,356,6.3,9.2,97,-99.99,,OVC043,-99.99,VWS V14.01,2013-02-11 10:11:00,
2013-02-11 05:12:00,55.6,54.8,30.27,North,356,4.9,6.9,97,-99.99,,OVC043,-99.99,VWS V14.01,2013-02-11 10:12:00,
2013-02-11 05:16:00,55.8,54.9,30.27,North,356,4.5,10.1,97,-99.99,,OVC043,-99.99,VWS V14.01,2013-02-11 10:16:00,
2013-02-11 05:17:00,55.8,54.9,30.27,North,356,8.7,8.7,97,-99.99,,OVC043,-99.99,VWS V14.01,2013-02-11 10:17:00,
2013-02-11 05:18:00,55.8,54.9,30.27,North,356,6.7,8.7,97,-99.99,,OVC043,-99.99,VWS V14.01,2013-02-11 10:18:00,
2013-02-11 05:21:00,55.8,54.9,30.27,North,356,6.7,6.7,97,-99.99,,OVC043,-99.99,VWS V14.01,2013-02-11 10:21:00,
2013-02-11 05:22:00,55.9,55.1,30.27,North,356,9.6,12.5,97,-99.99,,OVC043,-99.99,VWS V14.01,2013-02-11 10:22:00,
2013-02-11 05:23:00,55.9,55.1,30.27,North,356,2.7,4.9,97,-99.99,,OVC043,-99.99,VWS V14.01,2013-02-11 10:23:00,
2013-02-11 05:27:00,55.9,55.1,30.27,North,356,6.7,11.2,97,-99.99,,OVC043,-99.99,VWS V14.01,2013-02-11 10:27:00,
2013-02-11 05:28:00,55.9,55.1,30.27,North,356,6.7,6.7,97,-99.99,,OVC043,-99.99,VWS V14.01,2013-02-11 10:28:00,
2013-02-11 05:29:00,55.9,55.1,30.27,North,356,4.9,7.4,97,-99.99,,OVC043,-99.99,VWS V14.01,2013-02-11 10:29:00,
2013-02-11 05:32:00,55.9,55.1,30.27,North,356,4.5,6.9,97,-99.99,,OVC043,-99.99,VWS V14.01,2013-02-11 10:32:00,
2013-02-11 05:33:00,55.9,55.1,30.27,North,356,5.4,9.2,97,-99.99,,OVC043,-99.99,VWS V14.01,2013-02-11 10:33:00,
2013-02-11 05:35:00,55.9,55.1,30.27,North,356,5.4,7.8,97,-99.99,,OVC043,-99.99,VWS V14.01,2013-02-11 10:35:00,
2013-02-11 05:36:00,55.9,55.1,30.27,North,356,11.6,13.4,97,-99.99,,OVC043,-99.99,VWS V14.01,2013-02-11 10:36:00,
2013-02-11 05:38:00,55.9,55.1,30.27,North,356,4.9,6.9,97,-99.99,,OVC043,-99.99,VWS V14.01,2013-02-11 10:38:00,
2013-02-11 05:39:00,55.9,55.1,30.27,North,356,2.7,6.3,97,-99.99,,OVC043,-99.99,VWS V14.01,2013-02-11 10:39:00,
2013-02-11 05:40:00,55.9,55.1,30.27,North,356,4.5,6.7,97,-99.99,,OVC043,-99.99,VWS V14.01,2013-02-11 10:40:00,
2013-02-11 05:42:00,55.9,55.1,30.27,North,356,0.0,4.0,97,-99.99,,,-99.99,VWS V14.01,2013-02-11 10:42:00,
2013-02-11 05:43:00,55.9,55.1,30.27,North,356,4.0,4.0,97,-99.99,,,-99.99,VWS V14.01,2013-02-11 10:43:00,
2013-02-11 05:45:00,55.9,55.1,30.27,North,356,3.1,7.8,97,-99.99,,,-99.99,VWS V14.01,2013-02-11 10:45:00,
2013-02-11 05:47:00,55.9,55.1,30.27,North,356,4.0,4.0,97,-99.99,,,-99.99,VWS V14.01,2013-02-11 10:47:00,
2013-02-11 05:48:00,55.9,55.1,30.27,North,356,3.6,4.9,97,-99.99,,,-99.99,VWS V14.01,2013-02-11 10:48:00,
2013-02-11 05:50:00,55.9,55.1,30.27,North,356,4.5,7.8,97,-99.99,,,-99.99,VWS V14.01,2013-02-11 10:50:00,
2013-02-11 05:52:00,55.9,55.1,30.27,North,356,6.9,8.7,97,-99.99,,,-99.99,VWS V14.01,2013-02-11 10:52:00,
2013-02-11 05:53:00,56.1,55.3,30.27,North,356,4.5,8.7,97,-99.99,,,-99.99,VWS V14.01,2013-02-11 10:53:00,
2013-02-11 05:57:00,56.1,55.3,30.27,North,356,4.9,6.7,97,-99.99,,-RA,-99.99,VWS V14.01,2013-02-11 10:57:00,
2013-02-11 05:58:00,55.9,55.1,30.27,North,356,5.4,5.4,97,-99.99,,-RA,-99.99,VWS V14.01,2013-02-11 10:58:00,
2013-02-11 05:59:00,56.1,55.3,30.27,North,356,4.9,5.4,97,-99.99,,-RA,-99.99,VWS V14.01,2013-02-11 10:59:00,
2013-02-11 06:03:00,56.1,55.3,30.27,North,356,0.0,4.0,97,-99.99,,-RA,-99.99,VWS V14.01,2013-02-11 11:03:00,
2013-02-11 06:04:00,56.1,55.3,30.27,North,356,4.9,6.7,97,-99.99,,-RA,-99.99,VWS V14.01,2013-02-11 11:04:00,
2013-02-11 06:08:00,56.1,55.3,30.27,North,356,5.8,6.3,97,-99.99,,-RA,-99.99,VWS V14.01,2013-02-11 11:08:00,
2013-02-11 06:09:00,56.1,55.3,30.27,North,356,5.4,6.3,97,-99.99,,-RA,-99.99,VWS V14.01,2013-02-11 11:09:00,
2013-02-11 06:10:00,56.1,55.3,30.27,North,356,6.7,6.7,97,-99.99,,-RA,-99.99,VWS V14.01,2013-02-11 11:10:00,
2013-02-11 06:14:00,56.3,55.5,30.27,North,356,7.4,10.5,97,-99.99,,-RA,-99.99,VWS V14.01,2013-02-11 11:14:00,
2013-02-11 06:15:00,56.3,55.5,30.27,North,356,2.7,4.0,97,-99.99,,-RA,-99.99,VWS V14.01,2013-02-11 11:15:00,
2013-02-11 06:19:00,56.3,55.5,30.27,North,356,5.8,5.8,97,-99.99,,-RA,-99.99,VWS V14.01,2013-02-11 11:19:00,
2013-02-11 06:20:00,56.5,55.6,30.27,North,356,3.6,9.6,97,-99.99,,-RA,-99.99,VWS V14.01,2013-02-11 11:20:00,
2013-02-11 06:21:00,56.5,55.6,30.27,North,356,4.9,9.6,97,-99.99,,-RA,-99.99,VWS V14.01,2013-02-11 11:21:00,
2013-02-11 06:24:00,56.5,55.6,30.27,North,356,4.9,8.7,97,-99.99,,-RA,-99.99,VWS V14.01,2013-02-11 11:24:00,
2013-02-11 06:25:00,56.5,55.6,30.27,North,356,6.7,6.7,97,-99.99,,-RA,-99.99,VWS V14.01,2013-02-11 11:25:00,
2013-02-11 06:26:00,56.5,55.6,30.27,North,356,3.6,6.9,97,-99.99,,-RA,-99.99,VWS V14.01,2013-02-11 11:26:00,
2013-02-11 06:30:00,56.7,55.8,30.27,North,356,5.4,5.8,97,-99.99,,-RA,-99.99,VWS V14.01,2013-02-11 11:30:00,
2013-02-11 06:31:00,56.7,55.8,30.27,North,356,4.9,7.4,97,-99.99,,-RA,-99.99,VWS V14.01,2013-02-11 11:31:00,
2013-02-11 06:35:00,56.7,55.8,30.27,North,356,5.4,5.8,97,-99.99,,OVC010,-99.99,VWS V14.01,2013-02-11 11:35:00,
2013-02-11 06:36:00,56.7,55.8,30.27,North,356,4.0,4.0,97,-99.99,,OVC010,-99.99,VWS V14.01,2013-02-11 11:36:00,
2013-02-11 06:37:00,56.7,55.8,30.27,North,356,7.8,7.8,97,-99.99,,OVC010,-99.99,VWS V14.01,2013-02-11 11:37:00,
2013-02-11 06:42:00,56.8,56.0,30.27,North,356,5.8,5.8,97,-99.99,,OVC010,-99.99,VWS V14.01,2013-02-11 11:42:00,
2013-02-11 06:44:00,56.8,56.0,30.27,North,356,4.9,6.7,97,-99.99,,OVC010,-99.99,VWS V14.01,2013-02-11 11:44:00,
2013-02-11 06:47:00,56.8,56.0,30.27,North,356,7.4,7.8,97,-99.99,,OVC010,-99.99,VWS V14.01,2013-02-11 11:47:00,
2013-02-11 06:48:00,56.8,56.0,30.27,North,356,2.7,6.9,97,-99.99,,OVC010,-99.99,VWS V14.01,2013-02-11 11:48:00,
2013-02-11 06:50:00,56.8,56.0,30.27,North,356,4.9,6.7,97,-99.99,,OVC010,-99.99,VWS V14.01,2013-02-11 11:50:00,
2013-02-11 06:52:00,56.8,56.0,30.27,North,356,6.7,13.4,97,-99.99,,OVC010,-99.99,VWS V14.01,2013-02-11 11:52:00,
2013-02-11 06:53:00,56.8,56.0,30.27,North,356,6.9,6.9,97,-99.99,,OVC010,-99.99,VWS V14.01,2013-02-11 11:53:00,
2013-02-11 06:54:00,56.8,56.0,30.27,North,356,11.6,11.6,97,-99.99,,OVC010,-99.99,VWS V14.01,2013-02-11 11:54:00,
2013-02-11 06:55:00,57.0,56.2,30.27,North,356,6.3,10.5,97,-99.99,,OVC010,-99.99,VWS V14.01,2013-02-11 11:55:00,
2013-02-11 06:58:00,57.0,56.2,30.27,North,356,5.4,8.7,97,-99.99,,RA,-99.99,VWS V14.01,2013-02-11 11:58:00,
2013-02-11 06:59:00,57.2,56.4,30.27,North,356,7.8,7.8,97,-99.99,,RA,-99.99,VWS V14.01,2013-02-11 11:59:00,
2013-02-11 07:02:00,57.2,56.4,30.27,North,356,6.9,9.6,97,-99.99,,RA,-99.99,VWS V14.01,2013-02-11 12:02:00,
2013-02-11 07:03:00,57.2,56.4,30.27,North,356,6.3,7.4,97,-99.99,,RA,-99.99,VWS V14.01,2013-02-11 12:03:00,
2013-02-11 07:04:00,57.2,56.4,30.27,North,356,4.5,5.4,97,-99.99,,RA,-99.99,VWS V14.01,2013-02-11 12:04:00,
2013-02-11 07:05:00,57.2,56.4,30.27,North,356,4.0,4.5,97,-99.99,,RA,-99.99,VWS V14.01,2013-02-11 12:05:00,
2013-02-11 07:07:00,57.2,56.4,30.27,North,356,6.9,7.4,97,-99.99,,RA,-99.99,VWS V14.01,2013-02-11 12:07:00,
2013-02-11 07:08:00,57.2,56.4,30.27,North,356,6.3,9.6,97,-99.99,,RA,-99.99,VWS V14.01,2013-02-11 12:08:00,
2013-02-11 07:09:00,57.2,56.4,30.27,North,356,3.6,7.4,97,-99.99,,RA,-99.99,VWS V14.01,2013-02-11 12:09:00,
2013-02-11 07:10:00,57.2,56.4,30.27,North,356,7.4,11.2,97,-99.99,,RA,-99.99,VWS V14.01,2013-02-11 12:10:00,
2013-02-11 07:13:00,57.2,56.4,30.27,North,356,2.7,5.4,97,-99.99,,RA,-99.99,VWS V14.01,2013-02-11 12:13:00,
2013-02-11 07:14:00,57.2,56.4,30.27,North,356,7.8,7.8,97,-99.99,,RA,-99.99,VWS V14.01,2013-02-11 12:14:00,
2013-02-11 07:15:00,57.2,56.4,30.27,North,356,4.5,6.9,97,-99.99,,RA,-99.99,VWS V14.01,2013-02-11 12:15:00,
2013-02-11 07:16:00,57.2,56.4,30.27,North,356,5.8,6.9,97,-99.99,,RA,-99.99,VWS V14.01,2013-02-11 12:16:00,
2013-02-11 07:18:00,57.4,56.5,30.27,North,356,5.8,6.9,97,-99.99,,RA,-99.99,VWS V14.01,2013-02-11 12:18:00,
2013-02-11 07:19:00,57.4,56.5,30.27,North,356,2.7,4.0,97,-99.99,,RA,-99.99,VWS V14.01,2013-02-11 12:19:00,
2013-02-11 07:20:00,57.4,56.5,30.27,North,356,5.4,6.7,97,-99.99,,RA,-99.99,VWS V14.01,2013-02-11 12:20:00,
2013-02-11 07:21:00,57.4,56.5,30.27,North,356,6.9,6.9,97,-99.99,,RA,-99.99,VWS V14.01,2013-02-11 12:21:00,
2013-02-11 07:24:00,57.4,56.5,30.27,North,356,0.0,0.0,97,-99.99,,RA,-99.99,VWS V14.01,2013-02-11 12:24:00,
2013-02-11 07:26:00,57.4,56.5,30.27,North,356,4.9,6.9,97,-99.99,,RA,-99.99,VWS V14.01,2013-02-11 12:26:00,
2013-02-11 07:29:00,57.4,56.5,30.27,North,356,3.6,4.9,97,-99.99,,RA,-99.99,VWS V14.01,2013-02-11 12:29:00,
2013-02-11 07:30:00,57.4,56.5,30.27,North,356,4.5,5.4,97,-99.99,,RA,-99.99,VWS V14.01,2013-02-11 12:30:00,
2013-02-11 07:31:00,57.4,56.5,30.27,North,356,3.1,4.9,97,-99.99,,RA,-99.99,VWS V14.01,2013-02-11 12:31:00,
2013-02-11 07:32:00,57.4,56.5,30.27,North,356,3.6,4.9,97,-99.99,,RA,-99.99,VWS V14.01,2013-02-11 12:32:00,
2013-02-11 07:35:00,57.4,56.5,30.27,North,356,3.1,7.8,97,-99.99,,RA,-99.99,VWS V14.01,2013-02-11 12:35:00,
2013-02-11 07:36:00,57.4,56.5,30.27,North,356,2.7,4.0,97,-99.99,,RA,-99.99,VWS V14.01,2013-02-11 12:36:00,
2013-02-11 07:37:00,57.4,56.5,30.27,North,356,0.0,3.6,97,-99.99,,RA,-99.99,VWS V14.01,2013-02-11 12:37:00,
2013-02-11 07:38:00,57.4,56.5,30.27,North,356,4.9,4.9,97,-99.99,,RA,-99.99,VWS V14.01,2013-02-11 12:38:00,
2013-02-11 07:41:00,57.4,56.5,30.27,North,356,5.8,8.3,97,-99.99,,RA,-99.99,VWS V14.01,2013-02-11 12:41:00,
2013-02-11 07:42:00,57.6,56.7,30.27,North,356,4.9,8.3,97,-99.99,,RA,-99.99,VWS V14.01,2013-02-11 12:42:00,
2013-02-11 07:43:00,57.6,56.7,30.27,North,356,4.0,8.3,97,-99.99,,RA,-99.99,VWS V14.01,2013-02-11 12:43:00,
2013-02-11 07:46:00,57.6,56.7,30.27,North,356,3.6,7.8,97,-99.99,,RA,-99.99,VWS V14.01,2013-02-11 12:46:00,
2013-02-11 07:48:00,57.6,56.7,30.27,North,356,5.8,6.3,97,-99.99,,RA,-99.99,VWS V14.01,2013-02-11 12:48:00,
2013-02-11 07:50:00,57.6,56.7,30.27,North,356,3.1,6.3,97,-99.99,,RA,-99.99,VWS V14.01,2013-02-11 12:50:00,
2013-02-11 07:51:00,57.6,56.7,30.27,North,356,3.6,6.3,97,-99.99,,RA,-99.99,VWS V14.01,2013-02-11 12:51:00,
2013-02-11 07:53:00,57.6,56.7,30.27,North,356,5.8,6.9,97,-99.99,,RA,-99.99,VWS V14.01,2013-02-11 12:53:00,
2013-02-11 07:54:00,57.6,56.7,30.27,North,356,0.0,6.9,97,-99.99,,RA,-99.99,VWS V14.01,2013-02-11 12:54:00,
2013-02-11 07:56:00,57.6,56.7,30.27,North,356,8.3,10.5,97,-99.99,,RA,-99.99,VWS V14.01,2013-02-11 12:56:00,
2013-02-11 07:57:00,57.6,56.7,30.27,North,356,2.7,6.7,97,-99.99,,-RA,-99.99,VWS V14.01,2013-02-11 12:57:00,
2013-02-11 07:59:00,57.7,56.9,30.27,North,356,7.8,7.8,97,-99.99,,-RA,-99.99,VWS V14.01,2013-02-11 12:59:00,
2013-02-11 08:02:00,57.7,56.9,30.27,North,356,3.6,5.8,97,-99.99,,-RA,-99.99,VWS V14.01,2013-02-11 13:02:00,
2013-02-11 08:04:00,57.7,56.9,30.27,North,356,4.5,6.3,97,-99.99,,-RA,-99.99,VWS V14.01,2013-02-11 13:04:00,
2013-02-11 08:06:00,57.7,56.9,30.27,North,356,4.5,5.8,97,-99.99,,-RA,-99.99,VWS V14.01,2013-02-11 13:06:00,
2013-02-11 08:07:00,57.7,56.9,30.27,North,356,2.7,4.0,97,-99.99,,-RA,-99.99,VWS V14.01,2013-02-11 13:07:00,
2013-02-11 08:08:00,57.7,56.9,30.27,North,356,4.0,4.0,97,-99.99,,-RA,-99.99,VWS V14.01,2013-02-11 13:08:00,
2013-02-11 08:10:00,57.6,56.7,30.27,North,356,2.7,3.6,97,-99.99,,-RA,-99.99,VWS V14.01,2013-02-11 13:10:00,
2013-02-11 08:12:00,57.6,56.7,30.27,North,356,4.5,5.4,97,-99.99,,-RA,-99.99,VWS V14.01,2013-02-11 13:12:00,
2013-02-11 08:13:00,57.6,56.7,30.27,North,356,3.1,4.5,97,-99.99,,-RA,-99.99,VWS V14.01,2013-02-11 13:13:00,
2013-02-11 08:14:00,57.6,56.7,30.27,North,356,4.5,5.4,97,-99.99,,-RA,-99.99,VWS V14.01,2013-02-11 13:14:00,
2013-02-11 08:15:00,57.6,56.7,30.27,North,356,0.0,3.1,97,-99.99,,-RA,-99.99,VWS V14.01,2013-02-11 13:15:00,
2013-02-11 08:17:00,57.6,56.7,30.27,North,356,0.0,4.9,97,-99.99,,-RA,-99.99,VWS V14.01,2013-02-11 13:17:00,
2013-02-11 08:18:00,57.6,56.7,30.27,North,356,0.0,0.0,97,-99.99,,-RA,-99.99,VWS V14.01,2013-02-11 13:18:00,
2013-02-11 08:19:00,57.6,56.7,30.27,North,356,3.6,6.3,97,-99.99,,-RA,-99.99,VWS V14.01,2013-02-11 13:19:00,
2013-02-11 08:20:00,57.7,56.9,30.27,North,356,4.9,6.3,97,-99.99,,-RA,-99.99,VWS V14.01,2013-02-11 13:20:00,
2013-02-11 08:23:00,57.7,56.9,30.27,North,356,4.5,4.5,97,-99.99,,-RA,-99.99,VWS V14.01,2013-02-11 13:23:00,
2013-02-11 08:24:00,57.7,56.9,30.27,North,356,3.1,3.1,97,-99.99,,-RA,-99.99,VWS V14.01,2013-02-11 13:24:00,
2013-02-11 08:25:00,57.7,56.9,30.27,North,356,6.9,6.9,97,-99.99,,-RA,-99.99,VWS V14.01,2013-02-11 13:25:00,
2013-02-11 08:28:00,57.7,56.9,30.27,North,356,4.9,7.4,97,-99.99,,-RA,-99.99,VWS V14.01,2013-02-11 13:28:00,
2013-02-11 08:30:00,57.7,56.9,30.27,North,356,6.7,6.7,97,-99.99,,-RA,-99.99,VWS V14.01,2013-02-11 13:30:00,
2013-02-11 08:31:00,57.7,56.9,30.27,North,356,4.5,5.8,97,-99.99,,-RA,-99.99,VWS V14.01,2013-02-11 13:31:00,
2013-02-11 08:34:00,57.9,57.1,30.27,North,356,2.7,6.3,97,-99.99,,-RA,-99.99,VWS V14.01,2013-02-11 13:34:00,
2013-02-11 08:35:00,57.9,57.1,30.27,North,356,3.6,5.4,97,-99.99,,-RA,-99.99,VWS V14.01,2013-02-11 13:35:00,
2013-02-11 08:37:00,57.9,57.1,30.27,North,356,3.1,8.7,97,-99.99,,-RA,-99.99,VWS V14.01,2013-02-11 13:37:00,
2013-02-11 08:39:00,57.9,57.1,30.27,North,356,4.0,5.8,97,-99.99,,-RA,-99.99,VWS V14.01,2013-02-11 13:39:00,
2013-02-11 08:41:00,57.9,57.1,30.27,North,356,3.1,3.1,97,-99.99,,-RA,-99.99,VWS V14.01,2013-02-11 13:41:00,
2013-02-11 08:42:00,57.9,57.1,30.27,North,356,4.9,4.9,97,-99.99,,-RA,-99.99,VWS V14.01,2013-02-11 13:42:00,
2013-02-11 08:43:00,57.9,57.1,30.27,North,356,4.9,4.9,97,-99.99,,-RA,-99.99,VWS V14.01,2013-02-11 13:43:00,
2013-02-11 08:44:00,57.9,57.1,30.27,North,356,2.7,4.9,97,-99.99,,-RA,-99.99,VWS V14.01,2013-02-11 13:44:00,
2013-02-11 08:47:00,57.9,57.1,30.27,North,356,4.9,4.9,97,-99.99,,-RA,-99.99,VWS V14.01,2013-02-11 13:47:00,
2013-02-11 08:48:00,57.9,57.1,30.27,North,356,4.9,5.8,97,-99.99,,-RA,-99.99,VWS V14.01,2013-02-11 13:48:00,
2013-02-11 08:49:00,57.9,57.1,30.27,North,356,4.5,5.8,97,-99.99,,-RA,-99.99,VWS V14.01,2013-02-11 13:49:00,
2013-02-11 08:52:00,58.1,57.3,30.27,North,356,4.9,10.5,97,-99.99,,-RA,-99.99,VWS V14.01,2013-02-11 13:52:00,
2013-02-11 08:53:00,58.1,57.3,30.27,North,356,6.7,9.2,97,-99.99,,-RA,-99.99,VWS V14.01,2013-02-11 13:53:00,
2013-02-11 08:54:00,58.1,57.3,30.27,North,356,0.0,3.1,97,-99.99,,-RA,-99.99,VWS V14.01,2013-02-11 13:54:00,
2013-02-11 08:55:00,58.1,57.3,30.27,North,356,3.1,3.1,97,-99.99,,-RA,-99.99,VWS V14.01,2013-02-11 13:55:00,
2013-02-11 08:57:00,58.1,57.3,30.27,North,356,6.3,6.3,97,-99.99,,-RA,-99.99,VWS V14.01,2013-02-11 13:57:00,
2013-02-11 08:58:00,58.1,57.3,30.27,North,356,2.7,6.7,97,-99.99,,-RA,-99.99,VWS V14.01,2013-02-11 13:58:00,
2013-02-11 08:59:00,58.1,57.3,30.27,North,356,2.7,4.0,97,-99.99,,-RA,-99.99,VWS V14.01,2013-02-11 13:59:00,
2013-02-11 09:00:00,58.1,57.3,30.27,North,356,4.5,6.3,97,-99.99,,-RA,-99.99,VWS V14.01,2013-02-11 14:00:00,
2013-02-11 09:03:00,58.1,57.3,30.27,North,356,3.6,5.8,97,-99.99,,-RA,-99.99,VWS V14.01,2013-02-11 14:03:00,
2013-02-11 09:04:00,58.1,57.3,30.27,North,356,0.0,6.3,97,-99.99,,-RA,-99.99,VWS V14.01,2013-02-11 14:04:00,
2013-02-11 09:07:00,58.1,57.3,30.24,North,356,4.0,4.9,97,-99.99,,-RA,-99.99,VWS V14.01,2013-02-11 14:07:00,
2013-02-11 09:08:00,58.1,57.3,30.24,North,356,4.0,5.8,97,-99.99,,-RA,-99.99,VWS V14.01,2013-02-11 14:08:00,
2013-02-11 09:09:00,58.3,57.4,30.24,North,356,4.0,4.9,97,-99.99,,-RA,-99.99,VWS V14.01,2013-02-11 14:09:00,
2013-02-11 09:10:00,58.3,57.4,30.24,North,356,6.3,6.9,97,-99.99,,-RA,-99.99,VWS V14.01,2013-02-11 14:10:00,
2013-02-11 09:13:00,58.3,57.4,30.24,North,356,0.0,4.5,97,-99.99,,OVC010,-99.99,VWS V14.01,2013-02-11 14:13:00,
2013-02-11 09:14:00,58.3,57.4,30.24,North,356,3.6,5.4,97,-99.99,,OVC010,-99.99,VWS V14.01,2013-02-11 14:14:00,
2013-02-11 09:15:00,58.3,57.4,30.24,North,356,0.0,5.4,97,-99.99,,OVC010,-99.99,VWS V14.01,2013-02-11 14:15:00,
2013-02-11 09:18:00,58.3,57.4,30.24,North,356,3.6,6.7,97,-99.99,,OVC010,-99.99,VWS V14.01,2013-02-11 14:18:00,
2013-02-11 09:20:00,58.5,57.6,30.24,North,356,0.0,6.9,97,-99.99,,OVC010,-99.99,VWS V14.01,2013-02-11 14:20:00,
2013-02-11 09:24:00,58.5,57.6,30.27,North,356,0.0,5.4,97,-99.99,,OVC010,-99.99,VWS V14.01,2013-02-11 14:24:00,
2013-02-11 09:25:00,58.5,57.6,30.27,North,356,0.0,5.4,97,-99.99,,OVC010,-99.99,VWS V14.01,2013-02-11 14:25:00,
2013-02-11 09:26:00,58.5,57.6,30.27,North,356,0.0,0.0,97,-99.99,,OVC010,-99.99,VWS V14.01,2013-02-11 14:26:00,
2013-02-11 09:30:00,58.5,57.6,30.27,North,356,0.0,7.8,97,-99.99,,OVC010,-99.99,VWS V14.01,2013-02-11 14:30:00,
2013-02-11 09:31:00,58.5,57.6,30.27,North,356,0.0,3.1,97,-99.99,,OVC010,-99.99,VWS V14.01,2013-02-11 14:31:00,
2013-02-11 09:35:00,58.6,57.8,30.27,North,356,5.4,6.7,97,-99.99,,OVC010,-99.99,VWS V14.01,2013-02-11 14:35:00,
2013-02-11 09:36:00,58.6,57.8,30.27,North,356,4.9,6.9,97,-99.99,,OVC010,-99.99,VWS V14.01,2013-02-11 14:36:00,
2013-02-11 09:37:00,58.6,57.8,30.27,North,356,4.9,4.9,97,-99.99,,OVC010,-99.99,VWS V14.01,2013-02-11 14:37:00,
2013-02-11 09:38:00,58.6,57.8,30.27,North,356,0.0,4.0,97,-99.99,,OVC010,-99.99,VWS V14.01,2013-02-11 14:38:00,
2013-02-11 09:41:00,58.8,58.0,30.27,North,356,4.9,5.4,97,-99.99,,OVC010,-99.99,VWS V14.01,2013-02-11 14:41:00,
2013-02-11 09:42:00,58.8,58.0,30.27,North,356,4.5,4.9,97,-99.99,,OVC010,-99.99,VWS V14.01,2013-02-11 14:42:00,
2013-02-11 09:43:00,58.8,58.0,30.27,North,356,6.7,9.6,97,-99.99,,OVC010,-99.99,VWS V14.01,2013-02-11 14:43:00,
2013-02-11 09:46:00,58.8,58.0,30.27,North,356,4.5,10.1,97,-99.99,,OVC010,-99.99,VWS V14.01,2013-02-11 14:46:00,
2013-02-11 09:47:00,58.8,58.0,30.27,North,356,3.1,10.1,97,-99.99,,OVC010,-99.99,VWS V14.01,2013-02-11 14:47:00,
2013-02-11 09:49:00,58.8,58.0,30.27,North,356,0.0,0.0,97,-99.99,,OVC008,-99.99,VWS V14.01,2013-02-11 14:49:00,
2013-02-11 09:52:00,58.8,58.0,30.27,North,356,0.0,10.1,97,-99.99,,OVC008,-99.99,VWS V14.01,2013-02-11 14:52:00,
2013-02-11 09:53:00,58.8,58.0,30.27,North,356,4.9,6.3,97,-99.99,,OVC008,-99.99,VWS V14.01,2013-02-11 14:53:00,
2013-02-11 09:54:00,58.8,58.0,30.27,North,356,0.0,6.9,97,-99.99,,OVC008,-99.99,VWS V14.01,2013-02-11 14:54:00,
2013-02-11 09:57:00,58.8,58.0,30.27,North,356,0.0,0.0,97,-99.99,,OVC008,-99.99,VWS V14.01,2013-02-11 14:57:00,
2013-02-11 09:59:00,58.8,58.0,30.27,North,356,4.5,4.5,97,-99.99,,OVC008,-99.99,VWS V14.01,2013-02-11 14:59:00,
2013-02-11 10:01:00,58.8,58.0,30.27,North,356,0.0,4.5,97,-99.99,,OVC008,-99.99,VWS V14.01,2013-02-11 15:01:00,
2013-02-11 10:02:00,58.8,58.0,30.27,North,356,0.0,3.1,97,-99.99,,OVC008,-99.99,VWS V14.01,2013-02-11 15:02:00,
2013-02-11 10:04:00,58.8,58.0,30.27,North,356,0.0,0.0,97,-99.99,,OVC008,-99.99,VWS V14.01,2013-02-11 15:04:00,
2013-02-11 10:07:00,58.8,58.0,30.27,North,356,3.6,3.6,97,-99.99,,OVC008,-99.99,VWS V14.01,2013-02-11 15:07:00,
2013-02-11 10:09:00,59.0,58.2,30.27,North,356,4.5,4.5,97,-99.99,,OVC008,-99.99,VWS V14.01,2013-02-11 15:09:00,
2013-02-11 10:10:00,59.0,58.2,30.27,North,356,5.4,5.4,97,-99.99,,OVC008,-99.99,VWS V14.01,2013-02-11 15:10:00,
2013-02-11 10:12:00,59.0,58.2,30.27,North,356,9.6,13.9,97,-99.99,,OVC008,-99.99,VWS V14.01,2013-02-11 15:12:00,
2013-02-11 10:13:00,59.2,58.3,30.27,North,356,3.6,13.9,97,-99.99,,OVC008,-99.99,VWS V14.01,2013-02-11 15:13:00,
2013-02-11 10:15:00,59.2,58.3,30.27,North,356,7.8,11.0,97,-99.99,,OVC008,-99.99,VWS V14.01,2013-02-11 15:15:00,
2013-02-11 10:17:00,59.4,58.5,30.27,North,356,2.7,6.7,97,-99.99,,OVC008,-99.99,VWS V14.01,2013-02-11 15:17:00,
2013-02-11 10:18:00,59.4,58.5,30.27,North,356,6.3,8.3,97,-99.99,,OVC008,-99.99,VWS V14.01,2013-02-11 15:18:00,
2013-02-11 10:20:00,59.5,58.7,30.24,North,356,0.0,6.3,97,-99.99,,OVC008,-99.99,VWS V14.01,2013-02-11 15:20:00,
2013-02-11 10:22:00,59.7,58.9,30.24,North,356,3.6,4.0,97,-99.99,,OVC008,-99.99,VWS V14.01,2013-02-11 15:22:00,
2013-02-11 10:23:00,59.7,58.9,30.24,North,356,4.5,4.5,97,-99.99,,OVC008,-99.99,VWS V14.01,2013-02-11 15:23:00,
2013-02-11 10:24:00,59.7,58.9,30.24,North,356,8.3,8.3,97,-99.99,,OVC008,-99.99,VWS V14.01,2013-02-11 15:24:00,
2013-02-11 10:27:00,59.7,58.9,30.24,North,356,0.0,4.0,97,-99.99,,OVC008,-99.99,VWS V14.01,2013-02-11 15:27:00,
2013-02-11 10:29:00,59.7,58.9,30.24,North,356,2.7,5.4,97,-99.99,,OVC008,-99.99,VWS V14.01,2013-02-11 15:29:00,
2013-02-11 10:33:00,59.7,58.9,30.24,North,356,3.6,6.7,97,-99.99,,OVC008,-99.99,VWS V14.01,2013-02-11 15:33:00,
2013-02-11 10:34:00,59.7,58.9,30.24,North,356,4.9,5.8,97,-99.99,,OVC008,-99.99,VWS V14.01,2013-02-11 15:34:00,
2013-02-11 10:35:00,59.7,58.9,30.24,North,356,4.0,6.3,97,-99.99,,OVC008,-99.99,VWS V14.01,2013-02-11 15:35:00,
2013-02-11 10:36:00,59.7,58.9,30.24,North,356,5.4,7.4,97,-99.99,,OVC008,-99.99,VWS V14.01,2013-02-11 15:36:00,
2013-02-11 10:38:00,59.7,58.9,30.24,North,356,0.0,0.0,97,-99.99,,OVC008,-99.99,VWS V14.01,2013-02-11 15:38:00,
2013-02-11 10:40:00,59.7,58.9,30.24,North,356,3.1,7.4,97,-99.99,,OVC008,-99.99,VWS V14.01,2013-02-11 15:40:00,
2013-02-11 10:42:00,59.7,58.9,30.24,North,356,0.0,6.7,97,-99.99,,OVC008,-99.99,VWS V14.01,2013-02-11 15:42:00,
2013-02-11 10:45:00,59.7,58.9,30.24,North,356,5.8,5.8,97,-99.99,,OVC008,-99.99,VWS V14.01,2013-02-11 15:45:00,
2013-02-11 10:46:00,59.7,58.9,30.24,North,356,2.7,4.0,97,-99.99,,OVC008,-99.99,VWS V14.01,2013-02-11 15:46:00,
2013-02-11 10:47:00,59.7,58.9,30.24,North,356,2.7,3.6,97,-99.99,,OVC008,-99.99,VWS V14.01,2013-02-11 15:47:00,
2013-02-11 10:51:00,59.9,59.0,30.24,North,356,6.3,7.8,97,-99.99,,OVC008,-99.99,VWS V14.01,2013-02-11 15:51:00,
2013-02-11 10:52:00,59.9,59.0,30.24,North,356,6.9,11.6,97,-99.99,,OVC008,-99.99,VWS V14.01,2013-02-11 15:52:00,
2013-02-11 10:56:00,59.9,59.0,30.24,North,356,0.0,5.4,97,-99.99,,OVC008,-99.99,VWS V14.01,2013-02-11 15:56:00,
2013-02-11 10:57:00,59.9,59.0,30.24,North,356,0.0,0.0,97,-99.99,,OVC008,-99.99,VWS V14.01,2013-02-11 15:57:00,
2013-02-11 11:00:00,59.9,59.0,30.24,North,356,4.0,5.8,97,-99.99,,OVC008,-99.99,VWS V14.01,2013-02-11 16:00:00,
2013-02-11 11:01:00,59.9,59.0,30.24,North,356,0.0,5.8,97,-99.99,,OVC008,-99.99,VWS V14.01,2013-02-11 16:01:00,
2013-02-11 11:03:00,60.1,59.2,30.24,North,356,3.6,7.8,97,-99.99,,OVC008,-99.99,VWS V14.01,2013-02-11 16:03:00,
2013-02-11 11:05:00,60.1,59.2,30.24,North,356,3.1,5.4,97,-99.99,,OVC008,-99.99,VWS V14.01,2013-02-11 16:05:00,
2013-02-11 11:06:00,60.1,59.2,30.24,North,356,3.1,5.4,97,-99.99,,OVC008,-99.99,VWS V14.01,2013-02-11 16:06:00,
2013-02-11 11:08:00,60.1,59.2,30.24,North,356,0.0,4.9,97,-99.99,,OVC008,-99.99,VWS V14.01,2013-02-11 16:08:00,
2013-02-11 11:09:00,60.1,59.2,30.24,North,356,0.0,4.9,97,-99.99,,OVC008,-99.99,VWS V14.01,2013-02-11 16:09:00,
2013-02-11 11:11:00,60.1,59.2,30.24,North,356,2.7,4.9,97,-99.99,,OVC008,-99.99,VWS V14.01,2013-02-11 16:11:00,
2013-02-11 11:14:00,60.1,59.2,30.24,North,356,3.1,3.1,97,-99.99,,OVC008,-99.99,VWS V14.01,2013-02-11 16:14:00,
2013-02-11 11:15:00,60.1,59.2,30.24,North,356,0.0,0.0,97,-99.99,,OVC008,-99.99,VWS V14.01,2013-02-11 16:15:00,
2013-02-11 11:16:00,60.1,59.2,30.24,North,356,2.7,4.0,97,-99.99,,OVC008,-99.99,VWS V14.01,2013-02-11 16:16:00,
2013-02-11 11:17:00,60.1,59.2,30.24,North,356,5.4,5.4,97,-99.99,,OVC008,-99.99,VWS V14.01,2013-02-11 16:17:00,
2013-02-11 11:20:00,60.3,59.4,30.21,North,356,3.6,6.3,97,-99.99,,OVC008,-99.99,VWS V14.01,2013-02-11 16:20:00,
2013-02-11 11:21:00,60.3,59.4,30.21,North,356,3.6,6.7,97,-99.99,,OVC008,-99.99,VWS V14.01,2013-02-11 16:21:00,
2013-02-11 11:22:00,60.3,59.4,30.21,North,356,8.3,10.1,97,-99.99,,OVC008,-99.99,VWS V14.01,2013-02-11 16:22:00,
2013-02-11 11:23:00,60.3,59.4,30.21,North,356,0.0,3.6,97,-99.99,,OVC008,-99.99,VWS V14.01,2013-02-11 16:23:00,
2013-02-11 11:26:00,60.3,59.4,30.21,North,356,7.4,11.0,97,-99.99,,OVC008,-99.99,VWS V14.01,2013-02-11 16:26:00,
2013-02-11 11:27:00,60.3,59.4,30.21,North,356,6.7,6.7,97,-99.99,,OVC008,-99.99,VWS V14.01,2013-02-11 16:27:00,
2013-02-11 11:30:00,60.3,59.4,30.21,North,356,6.3,6.3,97,-99.99,,OVC008,-99.99,VWS V14.01,2013-02-11 16:30:00,
2013-02-11 11:32:00,60.4,59.6,30.21,North,356,4.9,5.4,97,-99.99,,OVC008,-99.99,VWS V14.01,2013-02-11 16:32:00,
2013-02-11 11:33:00,60.4,59.6,30.21,North,356,5.8,6.7,97,-99.99,,OVC008,-99.99,VWS V14.01,2013-02-11 16:33:00,
2013-02-11 11:35:00,60.4,59.6,30.21,North,356,4.9,8.3,97,-99.99,,OVC008,-99.99,VWS V14.01,2013-02-11 16:35:00,
2013-02-11 11:37:00,60.4,59.6,30.21,North,356,8.3,8.7,97,-99.99,,OVC008,-99.99,VWS V14.01,2013-02-11 16:37:00,
2013-02-11 11:38:00,60.4,59.6,30.21,North,356,6.3,8.7,97,-99.99,,OVC008,-99.99,VWS V14.01,2013-02-11 16:38:00,
2013-02-11 11:40:00,60.4,59.6,30.21,North,356,3.6,4.0,97,-99.99,,OVC008,-99.99,VWS V14.01,2013-02-11 16:40:00,
2013-02-11 11:42:00,60.4,59.6,30.21,North,356,4.0,6.9,97,-99.99,,OVC008,-99.99,VWS V14.01,2013-02-11 16:42:00,
2013-02-11 11:43:00,60.4,59.6,30.21,North,356,4.0,6.9,97,-99.99,,OVC008,-99.99,VWS V14.01,2013-02-11 16:43:00,
2013-02-11 11:44:00,60.6,59.8,30.21,North,356,0.0,0.0,97,-99.99,,OVC008,-99.99,VWS V14.01,2013-02-11 16:44:00,
2013-02-11 11:47:00,60.6,59.8,30.21,North,356,0.0,6.7,97,-99.99,,OVC008,-99.99,VWS V14.01,2013-02-11 16:47:00,
2013-02-11 11:48:00,60.6,59.8,30.21,North,356,6.9,8.3,97,-99.99,,OVC008,-99.99,VWS V14.01,2013-02-11 16:48:00,
2013-02-11 11:50:00,60.6,59.8,30.21,North,356,4.0,4.0,97,-99.99,,OVC008,-99.99,VWS V14.01,2013-02-11 16:50:00,
2013-02-11 11:52:00,60.8,60.0,30.18,North,356,0.0,6.9,97,-99.99,,OVC008,-99.99,VWS V14.01,2013-02-11 16:52:00,
2013-02-11 11:53:00,60.8,60.0,30.18,North,356,4.5,4.5,97,-99.99,,OVC008,-99.99,VWS V14.01,2013-02-11 16:53:00,
2013-02-11 11:55:00,60.8,60.0,30.18,North,356,0.0,3.6,97,-99.99,,OVC008,-99.99,VWS V14.01,2013-02-11 16:55:00,
2013-02-11 11:58:00,60.8,60.0,30.18,North,356,0.0,0.0,97,-99.99,,OVC008,-99.99,VWS V14.01,2013-02-11 16:58:00,
2013-02-11 11:59:00,60.8,60.0,30.18,North,356,0.0,0.0,97,-99.99,,OVC008,-99.99,VWS V14.01,2013-02-11 16:59:00,
2013-02-11 12:00:00,60.8,60.0,30.18,North,356,2.7,2.7,97,-99.99,,OVC008,-99.99,VWS V14.01,2013-02-11 17:00:00,
2013-02-11 12:04:00,60.8,60.0,30.18,North,356,0.0,2.7,97,-99.99,,OVC008,-99.99,VWS V14.01,2013-02-11 17:04:00,
2013-02-11 12:05:00,60.8,60.0,30.21,North,356,4.5,4.9,97,-99.99,,OVC008,-99.99,VWS V14.01,2013-02-11 17:05:00,
2013-02-11 12:06:00,60.8,60.0,30.21,North,356,10.1,10.1,97,-99.99,,OVC008,-99.99,VWS V14.01,2013-02-11 17:06:00,
2013-02-11 12:09:00,60.8,60.0,30.21,North,356,3.1,3.1,97,-99.99,,OVC008,-99.99,VWS V14.01,2013-02-11 17:09:00,
2013-02-11 12:11:00,60.8,60.0,30.21,North,356,6.7,6.7,97,-99.99,,OVC008,-99.99,VWS V14.01,2013-02-11 17:11:00,
2013-02-11 12:13:00,60.6,59.8,30.21,North,356,4.0,9.6,97,-99.99,,OVC008,-99.99,VWS V14.01,2013-02-11 17:13:00,
2013-02-11 12:14:00,60.8,60.0,30.21,North,356,3.6,4.0,97,-99.99,,OVC008,-99.99,VWS V14.01,2013-02-11 17:14:00,
2013-02-11 12:15:00,60.8,60.0,30.21,North,356,4.9,4.9,97,-99.99,,OVC008,-99.99,VWS V14.01,2013-02-11 17:15:00,
2013-02-11 12:17:00,60.6,59.8,30.21,North,356,9.2,9.2,97,-99.99,,OVC008,-99.99,VWS V14.01,2013-02-11 17:17:00,
2013-02-11 12:18:00,60.8,60.0,30.21,North,356,3.6,6.7,97,-99.99,,OVC008,-99.99,VWS V14.01,2013-02-11 17:18:00,
2013-02-11 12:19:00,60.8,60.0,30.21,North,356,4.9,6.7,97,-99.99,,OVC008,-99.99,VWS V14.01,2013-02-11 17:19:00,
2013-02-11 12:22:00,60.8,60.0,30.21,North,356,0.0,6.9,97,-99.99,,OVC008,-99.99,VWS V14.01,2013-02-11 17:22:00,
2013-02-11 12:23:00,60.8,60.0,30.21,North,356,2.7,3.6,97,-99.99,,OVC008,-99.99,VWS V14.01,2013-02-11 17:23:00,
2013-02-11 12:24:00,60.8,60.0,30.21,North,356,0.0,3.1,97,-99.99,,OVC008,-99.99,VWS V14.01,2013-02-11 17:24:00,
2013-02-11 12:28:00,60.8,60.0,30.21,North,356,2.7,7.4,97,-99.99,,OVC008,-99.99,VWS V14.01,2013-02-11 17:28:00,
2013-02-11 12:29:00,60.8,60.0,30.21,North,356,6.9,6.9,97,-99.99,,OVC008,-99.99,VWS V14.01,2013-02-11 17:29:00,
2013-02-11 12:30:00,60.8,60.0,30.21,North,356,0.0,0.0,97,-99.99,,OVC008,-99.99,VWS V14.01,2013-02-11 17:30:00,
2013-02-11 12:33:00,61.0,60.1,30.21,North,356,0.0,4.0,97,-99.99,,OVC008,-99.99,VWS V14.01,2013-02-11 17:33:00,
2013-02-11 12:34:00,61.0,60.1,30.21,North,356,0.0,4.5,97,-99.99,,OVC008,-99.99,VWS V14.01,2013-02-11 17:34:00,
2013-02-11 12:35:00,61.0,60.1,30.21,North,356,3.1,5.4,97,-99.99,,OVC008,-99.99,VWS V14.01,2013-02-11 17:35:00,
2013-02-11 12:39:00,61.0,60.1,30.21,North,0,3.6,5.4,97,-99.99,,OVC008,-99.99,VWS V14.01,2013-02-11 17:39:00,
2013-02-11 12:40:00,61.0,60.1,30.21,North,356,3.1,3.6,97,-99.99,,OVC008,-99.99,VWS V14.01,2013-02-11 17:40:00,
2013-02-11 12:41:00,61.0,60.1,30.21,North,356,5.8,5.8,97,-99.99,,OVC008,-99.99,VWS V14.01,2013-02-11 17:41:00,
2013-02-11 12:44:00,61.0,60.1,30.21,North,356,4.0,4.9,97,-99.99,,OVC008,-99.99,VWS V14.01,2013-02-11 17:44:00,
2013-02-11 12:45:00,61.0,60.1,30.21,North,356,0.0,4.9,97,-99.99,,OVC008,-99.99,VWS V14.01,2013-02-11 17:45:00,
2013-02-11 12:46:00,61.0,60.1,30.21,North,356,4.5,4.5,97,-99.99,,OVC008,-99.99,VWS V14.01,2013-02-11 17:46:00,
2013-02-11 12:49:00,61.0,60.1,30.21,North,356,4.5,7.4,97,-99.99,,OVC010,-99.99,VWS V14.01,2013-02-11 17:49:00,
2013-02-11 12:50:00,61.2,60.3,30.21,North,356,0.0,0.0,97,-99.99,,OVC010,-99.99,VWS V14.01,2013-02-11 17:50:00,
2013-02-11 12:51:00,61.2,60.3,30.21,North,356,4.0,4.5,97,-99.99,,OVC010,-99.99,VWS V14.01,2013-02-11 17:51:00,
2013-02-11 12:52:00,61.2,60.3,30.21,North,356,5.4,6.7,97,-99.99,,OVC010,-99.99,VWS V14.01,2013-02-11 17:52:00,
2013-02-11 12:54:00,61.2,60.3,30.21,North,356,3.1,9.6,97,-99.99,,OVC010,-99.99,VWS V14.01,2013-02-11 17:54:00,
2013-02-11 12:56:00,61.2,60.3,30.21,North,356,4.5,8.7,97,-99.99,,OVC010,-99.99,VWS V14.01,2013-02-11 17:56:00,
2013-02-11 12:57:00,61.2,60.3,30.21,North,356,0.0,2.7,97,-99.99,,OVC010,-99.99,VWS V14.01,2013-02-11 17:57:00,
2013-02-11 12:59:00,61.3,60.5,30.21,North,356,3.1,7.4,97,-99.99,,OVC010,-99.99,VWS V14.01,2013-02-11 17:59:00,
2013-02-11 13:01:00,61.2,60.3,30.21,North,356,3.6,4.9,97,-99.99,,OVC010,-99.99,VWS V14.01,2013-02-11 18:01:00,
2013-02-11 13:04:00,61.2,60.3,30.21,North,356,4.5,7.4,97,-99.99,,OVC010,-99.99,VWS V14.01,2013-02-11 18:04:00,
2013-02-11 13:05:00,61.3,60.5,30.21,North,356,0.0,0.0,97,-99.99,,OVC010,-99.99,VWS V14.01,2013-02-11 18:05:00,
2013-02-11 13:08:00,61.3,60.5,30.18,North,356,6.9,6.9,97,-99.99,,OVC010,-99.99,VWS V14.01,2013-02-11 18:08:00,
2013-02-11 13:09:00,61.3,60.5,30.18,North,356,6.3,7.4,97,-99.99,,OVC010,-99.99,VWS V14.01,2013-02-11 18:09:00,
2013-02-11 13:10:00,61.3,60.5,30.18,North,356,0.0,0.0,97,-99.99,,OVC010,-99.99,VWS V14.01,2013-02-11 18:10:00,
2013-02-11 13:13:00,61.5,60.7,30.18,North,356,4.5,11.0,97,-99.99,,OVC010,-99.99,VWS V14.01,2013-02-11 18:13:00,
2013-02-11 13:14:00,61.5,60.7,30.18,North,356,3.6,11.0,97,-99.99,,OVC010,-99.99,VWS V14.01,2013-02-11 18:14:00,
2013-02-11 13:15:00,61.7,60.8,30.18,North,356,0.0,0.0,97,-99.99,,OVC010,-99.99,VWS V14.01,2013-02-11 18:15:00,
2013-02-11 13:18:00,61.7,60.8,30.18,North,356,5.8,10.5,97,-99.99,,OVC010,-99.99,VWS V14.01,2013-02-11 18:18:00,
2013-02-11 13:19:00,61.7,60.8,30.18,North,356,4.0,4.0,97,-99.99,,OVC010,-99.99,VWS V14.01,2013-02-11 18:19:00,
2013-02-11 13:20:00,61.7,60.8,30.21,North,356,3.6,4.5,97,-99.99,,OVC010,-99.99,VWS V14.01,2013-02-11 18:20:00,
2013-02-11 13:23:00,61.7,60.8,30.21,North,356,0.0,8.3,97,-99.99,,OVC010,-99.99,VWS V14.01,2013-02-11 18:23:00,
2013-02-11 13:24:00,61.7,60.8,30.21,North,356,0.0,8.3,97,-99.99,,OVC010,-99.99,VWS V14.01,2013-02-11 18:24:00,
2013-02-11 13:26:00,61.7,60.8,30.21,North,356,4.5,7.8,97,-99.99,,OVC010,-99.99,VWS V14.01,2013-02-11 18:26:00,
2013-02-11 13:29:00,61.7,60.8,30.21,North,356,4.5,6.7,97,-99.99,,OVC010,-99.99,VWS V14.01,2013-02-11 18:29:00,
2013-02-11 13:32:00,61.7,60.8,30.21,North,356,4.9,4.9,97,-99.99,,OVC010,-99.99,VWS V14.01,2013-02-11 18:32:00,
2013-02-11 13:34:00,61.7,60.8,30.21,North,356,3.6,4.9,97,-99.99,,OVC010,-99.99,VWS V14.01,2013-02-11 18:34:00,
2013-02-11 13:35:00,61.9,61.0,30.18,North,356,4.0,4.0,97,-99.99,,OVC010,-99.99,VWS V14.01,2013-02-11 18:35:00,
2013-02-11 13:39:00,61.7,60.8,30.18,North,356,6.9,7.8,97,-99.99,,OVC010,-99.99,VWS V14.01,2013-02-11 18:39:00,
2013-02-11 13:40:00,61.7,60.8,30.18,North,356,3.6,13.0,97,-99.99,,OVC010,-99.99,VWS V14.01,2013-02-11 18:40:00,
2013-02-11 13:41:00,61.9,61.0,30.18,North,356,3.1,3.1,97,-99.99,,OVC010,-99.99,VWS V14.01,2013-02-11 18:41:00,
2013-02-11 13:44:00,61.7,60.8,30.18,North,356,4.0,4.0,97,-99.99,,OVC010,-99.99,VWS V14.01,2013-02-11 18:44:00,
2013-02-11 13:45:00,61.7,60.8,30.18,North,356,0.0,5.8,97,-99.99,,OVC010,-99.99,VWS V14.01,2013-02-11 18:45:00,
2013-02-11 13:46:00,61.7,60.8,30.18,North,356,5.8,5.8,97,-99.99,,OVC010,-99.99,VWS V14.01,2013-02-11 18:46:00,
2013-02-11 13:47:00,61.7,60.8,30.18,North,356,4.9,7.4,97,-99.99,,OVC010,-99.99,VWS V14.01,2013-02-11 18:47:00,
2013-02-11 13:49:00,61.7,60.8,30.18,North,356,8.7,8.7,97,-99.99,,OVC010,-99.99,VWS V14.01,2013-02-11 18:49:00,
2013-02-11 13:51:00,61.9,61.0,30.18,North,356,0.0,0.0,97,-99.99,,OVC010,-99.99,VWS V14.01,2013-02-11 18:51:00,
2013-02-11 13:52:00,61.9,61.0,30.18,North,356,4.9,6.7,97,-99.99,,OVC010,-99.99,VWS V14.01,2013-02-11 18:52:00,
2013-02-11 13:55:00,61.7,60.8,30.18,North,356,4.5,5.8,97,-99.99,,OVC010,-99.99,VWS V14.01,2013-02-11 18:55:00,
2013-02-11 13:56:00,61.7,60.8,30.18,North,356,3.6,6.7,97,-99.99,,OVC010,-99.99,VWS V14.01,2013-02-11 18:56:00,
2013-02-11 13:57:00,61.7,60.8,30.18,North,356,3.1,4.9,97,-99.99,,OVC010,-99.99,VWS V14.01,2013-02-11 18:57:00,
2013-02-11 14:00:00,61.7,60.8,30.18,North,356,6.9,7.4,97,-99.99,,OVC010,-99.99,VWS V14.01,2013-02-11 19:00:00,
2013-02-11 14:01:00,61.9,61.0,30.18,North,356,0.0,4.5,97,-99.99,,OVC010,-99.99,VWS V14.01,2013-02-11 19:01:00,
2013-02-11 14:02:00,61.7,60.8,30.18,North,356,4.5,5.8,97,-99.99,,OVC010,-99.99,VWS V14.01,2013-02-11 19:02:00,
2013-02-11 14:05:00,61.9,61.0,30.18,North,356,3.1,8.3,97,-99.99,,OVC010,-99.99,VWS V14.01,2013-02-11 19:05:00,
2013-02-11 14:07:00,61.9,61.0,30.18,North,356,9.2,10.5,97,-99.99,,OVC010,-99.99,VWS V14.01,2013-02-11 19:07:00,
2013-02-11 14:08:00,61.9,61.0,30.18,North,356,4.0,4.0,97,-99.99,,OVC010,-99.99,VWS V14.01,2013-02-11 19:08:00,
2013-02-11 14:11:00,61.9,61.0,30.18,North,356,3.1,5.8,97,-99.99,,OVC010,-99.99,VWS V14.01,2013-02-11 19:11:00,
2013-02-11 14:12:00,61.9,61.0,30.18,North,356,4.0,4.0,97,-99.99,,OVC010,-99.99,VWS V14.01,2013-02-11 19:12:00,
2013-02-11 14:13:00,62.1,61.2,30.18,North,356,4.5,8.7,97,-99.99,,OVC010,-99.99,VWS V14.01,2013-02-11 19:13:00,
2013-02-11 14:16:00,62.1,61.2,30.18,North,356,4.0,4.5,97,-99.99,,OVC010,-99.99,VWS V14.01,2013-02-11 19:16:00,
2013-02-11 14:17:00,62.1,61.2,30.18,North,356,0.0,3.1,97,-99.99,,OVC010,-99.99,VWS V14.01,2013-02-11 19:17:00,
2013-02-11 14:18:00,62.1,61.2,30.18,North,356,2.7,4.0,97,-99.99,,OVC010,-99.99,VWS V14.01,2013-02-11 19:18:00,
2013-02-11 14:19:00,62.2,61.4,30.18,North,356,5.8,5.8,97,-99.99,,OVC010,-99.99,VWS V14.01,2013-02-11 19:19:00,
2013-02-11 14:21:00,62.2,61.4,30.15,North,356,5.8,6.9,97,-99.99,,OVC010,-99.99,VWS V14.01,2013-02-11 19:21:00,
2013-02-11 14:23:00,62.2,61.4,30.15,North,356,2.7,3.6,97,-99.99,,OVC010,-99.99,VWS V14.01,2013-02-11 19:23:00,
2013-02-11 14:24:00,62.4,61.6,30.15,North,356,3.6,9.2,97,-99.99,,OVC010,-99.99,VWS V14.01,2013-02-11 19:24:00,
2013-02-11 14:26:00,62.6,61.7,30.15,North,356,2.7,2.7,97,-99.99,,OVC010,-99.99,VWS V14.01,2013-02-11 19:26:00,
2013-02-11 14:28:00,62.4,61.6,30.15,North,356,6.3,6.3,97,-99.99,,OVC010,-99.99,VWS V14.01,2013-02-11 19:28:00,
2013-02-11 14:29:00,62.6,61.7,30.15,North,356,4.9,6.3,97,-99.99,,OVC010,-99.99,VWS V14.01,2013-02-11 19:29:00,
2013-02-11 14:30:00,62.6,61.7,30.15,North,356,3.6,4.0,97,-99.99,,OVC010,-99.99,VWS V14.01,2013-02-11 19:30:00,
2013-02-11 14:32:00,62.6,61.7,30.15,North,356,3.6,9.2,97,-99.99,,OVC010,-99.99,VWS V14.01,2013-02-11 19:32:00,
2013-02-11 14:33:00,62.6,61.7,30.15,North,356,0.0,0.0,97,-99.99,,OVC027,-99.99,VWS V14.01,2013-02-11 19:33:00,
2013-02-11 14:35:00,62.6,61.7,30.15,North,356,0.0,3.6,97,-99.99,,OVC027,-99.99,VWS V14.01,2013-02-11 19:35:00,
2013-02-11 14:36:00,62.6,61.7,30.18,North,356,0.0,0.0,97,-99.99,,OVC027,-99.99,VWS V14.01,2013-02-11 19:36:00,
2013-02-11 14:37:00,62.6,61.7,30.18,North,356,2.7,4.9,97,-99.99,,OVC027,-99.99,VWS V14.01,2013-02-11 19:37:00,
2013-02-11 14:39:00,62.6,61.7,30.18,North,356,0.0,4.5,97,-99.99,,OVC027,-99.99,VWS V14.01,2013-02-11 19:39:00,
2013-02-11 14:40:00,62.6,61.7,30.18,North,356,5.4,6.7,97,-99.99,,OVC027,-99.99,VWS V14.01,2013-02-11 19:40:00,
2013-02-11 14:42:00,62.6,61.7,30.18,North,356,3.1,4.0,97,-99.99,,OVC027,-99.99,VWS V14.01,2013-02-11 19:42:00,
2013-02-11 14:45:00,62.4,61.6,30.18,North,356,4.5,5.8,97,-99.99,,OVC027,-99.99,VWS V14.01,2013-02-11 19:45:00,
2013-02-11 14:46:00,62.4,61.6,30.18,North,356,6.7,8.7,97,-99.99,,OVC027,-99.99,VWS V14.01,2013-02-11 19:46:00,
2013-02-11 14:47:00,62.4,61.6,30.18,North,356,5.4,6.7,97,-99.99,,OVC027,-99.99,VWS V14.01,2013-02-11 19:47:00,
2013-02-11 14:48:00,62.4,61.6,30.18,North,356,5.8,5.8,97,-99.99,,OVC027,-99.99,VWS V14.01,2013-02-11 19:48:00,
2013-02-11 14:50:00,62.2,61.4,30.15,North,356,3.1,6.9,97,-99.99,,OVC027,-99.99,VWS V14.01,2013-02-11 19:50:00,
2013-02-11 14:51:00,62.2,61.4,30.15,North,356,5.4,5.4,97,-99.99,,OVC027,-99.99,VWS V14.01,2013-02-11 19:51:00,
2013-02-11 14:53:00,62.2,61.4,30.15,North,356,6.3,8.7,97,-99.99,,OVC027,-99.99,VWS V14.01,2013-02-11 19:53:00,
2013-02-11 14:56:00,62.4,61.6,30.15,North,356,0.0,0.0,97,-99.99,,OVC027,-99.99,VWS V14.01,2013-02-11 19:56:00,
2013-02-11 14:58:00,62.6,61.7,30.15,North,356,0.0,4.9,97,-99.99,,OVC027,-99.99,VWS V14.01,2013-02-11 19:58:00,
2013-02-11 15:02:00,62.6,61.7,30.15,North,356,4.5,6.7,97,-99.99,,OVC029,-99.99,VWS V14.01,2013-02-11 20:02:00,
2013-02-11 15:03:00,62.6,61.7,30.15,North,356,7.4,7.4,97,-99.99,,OVC029,-99.99,VWS V14.01,2013-02-11 20:03:00,
2013-02-11 15:04:00,62.6,61.7,30.15,North,356,0.0,7.4,97,-99.99,,OVC029,-99.99,VWS V14.01,2013-02-11 20:04:00,
2013-02-11 15:07:00,62.6,61.7,30.15,North,356,0.0,0.0,97,-99.99,,OVC029,-99.99,VWS V14.01,2013-02-11 20:07:00,
2013-02-11 15:08:00,62.6,61.7,30.15,North,356,0.0,0.0,97,-99.99,,OVC029,-99.99,VWS V14.01,2013-02-11 20:08:00,
2013-02-11 15:09:00,62.6,61.7,30.15,North,356,0.0,3.1,97,-99.99,,OVC029,-99.99,VWS V14.01,2013-02-11 20:09:00,
2013-02-11 15:13:00,62.4,61.6,30.15,North,356,0.0,4.0,97,-99.99,,OVC029,-99.99,VWS V14.01,2013-02-11 20:13:00,
2013-02-11 15:14:00,62.4,61.6,30.15,North,356,3.1,4.5,97,-99.99,,OVC029,-99.99,VWS V14.01,2013-02-11 20:14:00,
2013-02-11 15:16:00,62.4,61.6,30.15,North,356,4.5,6.3,97,-99.99,,OVC029,-99.99,VWS V14.01,2013-02-11 20:16:00,
2013-02-11 15:18:00,62.4,61.6,30.15,North,356,0.0,5.8,97,-99.99,,OVC029,-99.99,VWS V14.01,2013-02-11 20:18:00,
2013-02-11 15:19:00,62.4,61.6,30.15,North,356,0.0,5.8,97,-99.99,,OVC029,-99.99,VWS V14.01,2013-02-11 20:19:00,
2013-02-11 15:21:00,62.4,61.6,30.15,North,356,0.0,0.0,97,-99.99,,OVC029,-99.99,VWS V14.01,2013-02-11 20:21:00,
2013-02-11 15:23:00,62.6,61.7,30.15,North,356,0.0,4.5,97,-99.99,,OVC029,-99.99,VWS V14.01,2013-02-11 20:23:00,
2013-02-11 15:24:00,62.6,61.7,30.15,North,356,0.0,4.5,97,-99.99,,OVC029,-99.99,VWS V14.01,2013-02-11 20:24:00,
2013-02-11 15:27:00,62.8,61.9,30.15,North,356,0.0,0.0,97,-99.99,,OVC029,-99.99,VWS V14.01,2013-02-11 20:27:00,
2013-02-11 15:28:00,62.8,61.9,30.15,North,356,4.5,4.9,97,-99.99,,OVC029,-99.99,VWS V14.01,2013-02-11 20:28:00,
2013-02-11 15:29:00,62.8,61.9,30.15,North,356,0.0,4.9,97,-99.99,,OVC029,-99.99,VWS V14.01,2013-02-11 20:29:00,
2013-02-11 15:32:00,62.6,61.7,30.15,North,356,2.7,3.6,97,-99.99,,OVC029,-99.99,VWS V14.01,2013-02-11 20:32:00,
2013-02-11 15:34:00,62.6,61.7,30.15,North,356,0.0,0.0,97,-99.99,,OVC029,-99.99,VWS V14.01,2013-02-11 20:34:00,
2013-02-11 15:39:00,62.4,61.6,30.18,North,356,4.0,5.4,97,-99.99,,OVC029,-99.99,VWS V14.01,2013-02-11 20:39:00,
2013-02-11 15:40:00,62.2,61.4,30.18,North,356,0.0,3.1,97,-99.99,,OVC029,-99.99,VWS V14.01,2013-02-11 20:40:00,
2013-02-11 15:44:00,62.2,61.4,30.18,North,356,0.0,0.0,97,-99.99,,OVC029,-99.99,VWS V14.01,2013-02-11 20:44:00,
2013-02-11 15:45:00,62.2,61.4,30.18,North,356,6.3,6.3,97,-99.99,,OVC029,-99.99,VWS V14.01,2013-02-11 20:45:00,
2013-02-11 15:50:00,62.2,61.4,30.18,North,356,0.0,3.6,97,-99.99,,OVC029,-99.99,VWS V14.01,2013-02-11 20:50:00,
2013-02-11 15:51:00,62.4,61.6,30.15,North,356,0.0,3.6,97,-99.99,,OVC029,-99.99,VWS V14.01,2013-02-11 20:51:00,
2013-02-11 15:55:00,62.8,61.9,30.15,North,356,4.0,5.8,97,-99.99,,OVC029,-99.99,VWS V14.01,2013-02-11 20:55:00,
2013-02-11 15:56:00,63.0,62.1,30.15,North,356,5.4,5.8,97,-99.99,,OVC029,-99.99,VWS V14.01,2013-02-11 20:56:00,
2013-02-11 15:58:00,63.1,62.3,30.15,North,356,3.6,5.8,97,-99.99,,OVC029,-99.99,VWS V14.01,2013-02-11 20:58:00,
2013-02-11 16:00:00,63.1,62.3,30.15,North,356,7.4,7.4,97,-99.99,,OVC019,-99.99,VWS V14.01,2013-02-11 21:00:00,
2013-02-11 16:01:00,63.1,62.3,30.15,North,356,4.5,7.4,97,-99.99,,OVC019,-99.99,VWS V14.01,2013-02-11 21:01:00,
2013-02-11 16:02:00,63.1,62.3,30.15,North,356,0.0,0.0,97,-99.99,,OVC019,-99.99,VWS V14.01,2013-02-11 21:02:00,
2013-02-11 16:04:00,63.3,62.5,30.15,North,356,2.7,3.6,97,-99.99,,OVC019,-99.99,VWS V14.01,2013-02-11 21:04:00,
2013-02-11 16:06:00,63.1,62.3,30.15,North,356,3.6,4.5,97,-99.99,,OVC019,-99.99,VWS V14.01,2013-02-11 21:06:00,
2013-02-11 16:08:00,63.1,62.3,30.15,North,356,0.0,2.7,97,-99.99,,OVC019,-99.99,VWS V14.01,2013-02-11 21:08:00,
2013-02-11 16:11:00,63.3,62.5,30.15,North,356,3.6,3.6,97,-99.99,,OVC019,-99.99,VWS V14.01,2013-02-11 21:11:00,
2013-02-11 16:13:00,63.3,62.5,30.15,North,356,0.0,0.0,97,-99.99,,OVC019,-99.99,VWS V14.01,2013-02-11 21:13:00,
2013-02-11 16:17:00,63.3,62.5,30.15,North,356,0.0,0.0,97,-99.99,,OVC019,-99.99,VWS V14.01,2013-02-11 21:17:00,
2013-02-11 16:18:00,63.3,62.5,30.15,North,356,0.0,0.0,97,-99.99,,OVC019,-99.99,VWS V14.01,2013-02-11 21:18:00,
2013-02-11 16:19:00,63.1,62.3,30.15,North,356,0.0,0.0,97,-99.99,,OVC019,-99.99,VWS V14.01,2013-02-11 21:19:00,
2013-02-11 16:20:00,63.1,62.3,30.15,North,356,0.0,0.0,97,-99.99,,OVC019,-99.99,VWS V14.01,2013-02-11 21:20:00,
2013-02-11 16:22:00,63.1,62.3,30.15,North,356,0.0,5.4,97,-99.99,,OVC019,-99.99,VWS V14.01,2013-02-11 21:22:00,
2013-02-11 16:24:00,63.0,62.1,30.15,North,356,0.0,4.5,97,-99.99,,OVC019,-99.99,VWS V14.01,2013-02-11 21:24:00,
2013-02-11 16:26:00,62.8,61.9,30.15,North,356,0.0,3.6,97,-99.99,,OVC019,-99.99,VWS V14.01,2013-02-11 21:26:00,
2013-02-11 16:27:00,62.8,61.9,30.15,North,356,3.6,6.7,97,-99.99,,OVC019,-99.99,VWS V14.01,2013-02-11 21:27:00,
2013-02-11 16:30:00,62.8,61.9,30.15,North,356,0.0,0.0,97,-99.99,,SCT037,-99.99,VWS V14.01,2013-02-11 21:30:00,
2013-02-11 16:31:00,62.8,61.9,30.15,North,356,0.0,0.0,97,-99.99,,SCT037,-99.99,VWS V14.01,2013-02-11 21:31:00,
2013-02-11 16:32:00,62.8,61.9,30.15,North,356,2.7,2.7,97,-99.99,,SCT037,-99.99,VWS V14.01,2013-02-11 21:32:00,
2013-02-11 16:36:00,62.8,61.9,30.15,North,356,0.0,0.0,97,-99.99,,SCT037,-99.99,VWS V14.01,2013-02-11 21:36:00,
2013-02-11 16:37:00,62.8,61.9,30.15,North,356,0.0,0.0,97,-99.99,,SCT037,-99.99,VWS V14.01,2013-02-11 21:37:00,
2013-02-11 16:38:00,62.8,61.9,30.15,North,356,0.0,0.0,97,-99.99,,SCT037,-99.99,VWS V14.01,2013-02-11 21:38:00,
2013-02-11 16:41:00,62.6,61.7,30.15,North,356,2.7,4.9,97,-99.99,,SCT037,-99.99,VWS V14.01,2013-02-11 21:41:00,
2013-02-11 16:43:00,62.6,61.7,30.15,North,356,6.3,6.3,97,-99.99,,SCT037,-99.99,VWS V14.01,2013-02-11 21:43:00,
2013-02-11 16:46:00,62.4,61.6,30.15,North,356,0.0,2.7,97,-99.99,,SCT037,-99.99,VWS V14.01,2013-02-11 21:46:00,
2013-02-11 16:47:00,62.4,61.6,30.15,North,356,4.0,4.0,97,-99.99,,SCT037,-99.99,VWS V14.01,2013-02-11 21:47:00,
2013-02-11 16:48:00,62.4,61.6,30.15,North,356,0.0,0.0,97,-99.99,,SCT037,-99.99,VWS V14.01,2013-02-11 21:48:00,
2013-02-11 16:49:00,62.4,61.6,30.15,North,356,0.0,0.0,97,-99.99,,SCT037,-99.99,VWS V14.01,2013-02-11 21:49:00,
2013-02-11 16:52:00,62.2,61.4,30.15,North,356,0.0,0.0,97,-99.99,,SCT037,-99.99,VWS V14.01,2013-02-11 21:52:00,
2013-02-11 16:54:00,62.2,61.4,30.15,North,356,2.7,2.7,97,-99.99,,SCT037,-99.99,VWS V14.01,2013-02-11 21:54:00,
2013-02-11 16:57:00,62.1,61.2,30.15,North,356,0.0,0.0,97,-99.99,,SCT037,-99.99,VWS V14.01,2013-02-11 21:57:00,
2013-02-11 16:58:00,61.9,61.0,30.15,North,356,0.0,0.0,97,-99.99,,SCT037,-99.99,VWS V14.01,2013-02-11 21:58:00,
2013-02-11 16:59:00,61.9,61.0,30.15,North,356,0.0,0.0,97,-99.99,,SCT037,-99.99,VWS V14.01,2013-02-11 21:59:00,
2013-02-11 17:00:00,61.9,61.0,30.15,North,356,0.0,0.0,97,-99.99,,SCT037,-99.99,VWS V14.01,2013-02-11 22:00:00,
2013-02-11 17:04:00,61.9,61.0,30.15,North,356,0.0,0.0,97,-99.99,,OVC100,-99.99,VWS V14.01,2013-02-11 22:04:00,
2013-02-11 17:05:00,61.7,60.8,30.15,North,356,0.0,0.0,97,-99.99,,OVC100,-99.99,VWS V14.01,2013-02-11 22:05:00,
2013-02-11 17:09:00,61.7,60.8,30.15,North,356,0.0,0.0,97,-99.99,,OVC100,-99.99,VWS V14.01,2013-02-11 22:09:00,
2013-02-11 17:10:00,61.7,60.8,30.15,North,356,4.5,4.5,97,-99.99,,OVC100,-99.99,VWS V14.01,2013-02-11 22:10:00,
2013-02-11 17:11:00,61.7,60.8,30.15,North,356,0.0,3.1,97,-99.99,,OVC100,-99.99,VWS V14.01,2013-02-11 22:11:00,
2013-02-11 17:14:00,61.5,60.7,30.15,North,356,0.0,0.0,97,-99.99,,OVC100,-99.99,VWS V14.01,2013-02-11 22:14:00,
2013-02-11 17:15:00,61.5,60.7,30.15,North,356,0.0,0.0,97,-99.99,,OVC100,-99.99,VWS V14.01,2013-02-11 22:15:00,
2013-02-11 17:17:00,61.5,60.7,30.15,North,356,0.0,0.0,97,-99.99,,OVC100,-99.99,VWS V14.01,2013-02-11 22:17:00,
2013-02-11 17:19:00,61.5,60.7,30.15,North,356,0.0,0.0,97,-99.99,,OVC100,-99.99,VWS V14.01,2013-02-11 22:19:00,
2013-02-11 17:22:00,61.3,60.5,30.15,North,356,0.0,0.0,97,-99.99,,OVC100,-99.99,VWS V14.01,2013-02-11 22:22:00,
2013-02-11 17:23:00,61.3,60.5,30.15,North,356,0.0,0.0,97,-99.99,,OVC100,-99.99,VWS V14.01,2013-02-11 22:23:00,
2013-02-11 17:24:00,61.3,60.5,30.15,North,356,4.5,4.5,97,-99.99,,OVC100,-99.99,VWS V14.01,2013-02-11 22:24:00,
2013-02-11 17:28:00,61.3,60.5,30.15,North,356,0.0,4.0,97,-99.99,,OVC100,-99.99,VWS V14.01,2013-02-11 22:28:00,
2013-02-11 17:29:00,61.3,60.5,30.15,North,356,4.5,4.9,97,-99.99,,OVC100,-99.99,VWS V14.01,2013-02-11 22:29:00,
2013-02-11 17:33:00,61.3,60.5,30.15,North,356,2.7,2.7,97,-99.99,,OVC100,-99.99,VWS V14.01,2013-02-11 22:33:00,
2013-02-11 17:34:00,61.3,60.5,30.15,North,356,5.4,6.7,97,-99.99,,OVC100,-99.99,VWS V14.01,2013-02-11 22:34:00,
2013-02-11 17:38:00,61.3,60.5,30.15,North,356,3.6,7.8,97,-99.99,,OVC100,-99.99,VWS V14.01,2013-02-11 22:38:00,
2013-02-11 17:39:00,61.3,60.5,30.15,North,356,3.1,7.8,97,-99.99,,OVC100,-99.99,VWS V14.01,2013-02-11 22:39:00,
2013-02-11 17:40:00,61.3,60.5,30.15,North,356,9.6,9.6,97,-99.99,,OVC100,-99.99,VWS V14.01,2013-02-11 22:40:00,
2013-02-11 17:44:00,61.3,60.5,30.15,North,356,5.4,8.3,97,-99.99,,OVC100,-99.99,VWS V14.01,2013-02-11 22:44:00,
2013-02-11 17:45:00,61.3,60.5,30.15,North,356,6.9,7.8,97,-99.99,,OVC100,-99.99,VWS V14.01,2013-02-11 22:45:00,
2013-02-11 17:46:00,61.3,60.5,30.15,North,356,5.4,5.4,97,-99.99,,OVC100,-99.99,VWS V14.01,2013-02-11 22:46:00,
2013-02-11 17:50:00,61.3,60.5,30.15,North,356,6.9,7.4,97,-99.99,,OVC100,-99.99,VWS V14.01,2013-02-11 22:50:00,
2013-02-11 17:51:00,61.3,60.5,30.12,North,356,3.1,5.4,97,-99.99,,OVC100,-99.99,VWS V14.01,2013-02-11 22:51:00,
2013-02-11 17:55:00,61.3,60.5,30.12,North,356,5.4,11.2,97,-99.99,,OVC100,-99.99,VWS V14.01,2013-02-11 22:55:00,
2013-02-11 17:56:00,61.3,60.5,30.12,North,356,5.8,10.1,97,-99.99,,OVC100,-99.99,VWS V14.01,2013-02-11 22:56:00,
2013-02-11 17:57:00,61.3,60.5,30.12,North,356,5.8,5.8,97,-99.99,,OVC100,-99.99,VWS V14.01,2013-02-11 22:57:00,
2013-02-11 18:00:00,61.5,60.7,30.12,North,356,10.1,10.5,97,-99.99,,OVC100,-99.99,VWS V14.01,2013-02-11 23:00:00,
2013-02-11 18:01:00,61.5,60.7,30.12,North,356,4.9,6.7,97,-99.99,,OVC100,-99.99,VWS V14.01,2013-02-11 23:01:00,
2013-02-11 18:02:00,61.5,60.7,30.12,North,356,5.4,10.1,97,-99.99,,OVC100,-99.99,VWS V14.01,2013-02-11 23:02:00,
2013-02-11 18:04:00,61.5,60.7,30.12,North,356,6.3,12.5,97,-99.99,,OVC100,-99.99,VWS V14.01,2013-02-11 23:04:00,
2013-02-11 18:05:00,61.5,60.7,30.12,North,356,10.5,11.6,97,-99.99,,OVC100,-99.99,VWS V14.01,2013-02-11 23:05:00,
2013-02-11 18:06:00,61.5,60.7,30.12,North,356,9.6,10.5,97,-99.99,,OVC100,-99.99,VWS V14.01,2013-02-11 23:06:00,
2013-02-11 18:07:00,61.5,60.7,30.12,North,356,6.9,9.2,97,-99.99,,OVC100,-99.99,VWS V14.01,2013-02-11 23:07:00,
2013-02-11 18:10:00,61.3,60.5,30.12,North,356,3.1,9.2,97,-99.99,,OVC100,-99.99,VWS V14.01,2013-02-11 23:10:00,
2013-02-11 18:11:00,61.3,60.5,30.12,North,356,6.9,9.2,97,-99.99,,OVC100,-99.99,VWS V14.01,2013-02-11 23:11:00,
2013-02-11 18:12:00,61.3,60.5,30.12,North,356,6.3,8.3,97,-99.99,,OVC100,-99.99,VWS V14.01,2013-02-11 23:12:00,
2013-02-11 18:13:00,61.3,60.5,30.12,North,356,7.4,10.5,97,-99.99,,OVC100,-99.99,VWS V14.01,2013-02-11 23:13:00,
2013-02-11 18:15:00,61.3,60.5,30.12,North,356,6.9,11.2,97,-99.99,,OVC100,-99.99,VWS V14.01,2013-02-11 23:15:00,
2013-02-11 18:16:00,61.3,60.5,30.12,North,356,4.9,6.9,97,-99.99,,OVC100,-99.99,VWS V14.01,2013-02-11 23:16:00,
2013-02-11 18:17:00,61.3,60.5,30.12,North,356,0.0,4.5,97,-99.99,,OVC100,-99.99,VWS V14.01,2013-02-11 23:17:00,
2013-02-11 18:18:00,61.3,60.5,30.12,North,356,6.7,6.7,97,-99.99,,OVC100,-99.99,VWS V14.01,2013-02-11 23:18:00,
2013-02-11 18:20:00,61.3,60.5,30.12,North,356,2.7,6.9,97,-99.99,,OVC100,-99.99,VWS V14.01,2013-02-11 23:20:00,
2013-02-11 18:22:00,61.2,60.3,30.12,North,356,3.6,8.7,97,-99.99,,OVC100,-99.99,VWS V14.01,2013-02-11 23:22:00,
2013-02-11 18:23:00,61.2,60.3,30.12,North,356,5.4,5.4,97,-99.99,,OVC100,-99.99,VWS V14.01,2013-02-11 23:23:00,
2013-02-11 18:24:00,61.2,60.3,30.12,North,356,5.8,5.8,97,-99.99,,OVC100,-99.99,VWS V14.01,2013-02-11 23:24:00,
2013-02-11 18:26:00,61.0,60.1,30.12,North,356,0.0,4.5,97,-99.99,,OVC100,-99.99,VWS V14.01,2013-02-11 23:26:00,
2013-02-11 18:28:00,60.8,60.0,30.12,North,356,3.6,4.0,97,-99.99,,OVC100,-99.99,VWS V14.01,2013-02-11 23:28:00,
2013-02-11 18:29:00,60.8,60.0,30.12,North,356,3.1,4.0,97,-99.99,,OVC100,-99.99,VWS V14.01,2013-02-11 23:29:00,
2013-02-11 18:31:00,60.8,60.0,30.12,North,356,4.9,6.3,97,-99.99,,OVC100,-99.99,VWS V14.01,2013-02-11 23:31:00,
2013-02-11 18:34:00,60.8,60.0,30.12,North,356,0.0,8.3,97,-99.99,,OVC100,-99.99,VWS V14.01,2013-02-11 23:34:00,
2013-02-11 18:35:00,60.8,60.0,30.12,North,356,5.8,8.3,97,-99.99,,OVC100,-99.99,VWS V14.01,2013-02-11 23:35:00,
2013-02-11 18:36:00,60.8,60.0,30.09,North,356,6.9,13.9,97,-99.99,,OVC100,-99.99,VWS V14.01,2013-02-11 23:36:00,
2013-02-11 18:40:00,60.8,60.0,30.09,North,356,0.0,3.6,97,-99.99,,OVC100,-99.99,VWS V14.01,2013-02-11 23:40:00,
2013-02-11 18:41:00,60.8,60.0,30.09,North,356,3.1,4.9,97,-99.99,,OVC100,-99.99,VWS V14.01,2013-02-11 23:41:00,
2013-02-11 18:45:00,60.6,59.8,30.09,North,356,3.6,3.6,97,-99.99,,OVC100,-99.99,VWS V14.01,2013-02-11 23:45:00,
2013-02-11 18:46:00,60.4,59.6,30.09,North,356,4.0,6.7,97,-99.99,,OVC100,-99.99,VWS V14.01,2013-02-11 23:46:00,
2013-02-11 18:47:00,60.4,59.6,30.09,North,356,4.0,4.9,97,-99.99,,OVC100,-99.99,VWS V14.01,2013-02-11 23:47:00,
2013-02-11 18:50:00,60.3,59.4,30.15,North,356,3.6,4.0,97,-99.99,,OVC100,-99.99,VWS V14.01,2013-02-11 23:50:00,
2013-02-11 18:51:00,60.3,59.4,30.15,North,356,4.0,4.0,97,-99.99,,OVC100,-99.99,VWS V14.01,2013-02-11 23:51:00,
2013-02-11 18:52:00,60.3,59.4,30.15,North,356,0.0,4.0,97,-99.99,,OVC100,-99.99,VWS V14.01,2013-02-11 23:52:00,
2013-02-11 18:54:00,60.3,59.4,30.15,North,356,2.7,8.3,97,-99.99,,OVC100,-99.99,VWS V14.01,2013-02-11 23:54:00,
2013-02-11 18:55:00,60.4,59.6,30.15,North,356,2.7,5.8,97,-99.99,,OVC100,-99.99,VWS V14.01,2013-02-11 23:55:00,
2013-02-11 18:56:00,60.4,59.6,30.15,North,356,0.0,4.5,97,-99.99,,OVC100,-99.99,VWS V14.01,2013-02-11 23:56:00,
2013-02-11 18:57:00,60.3,59.4,30.15,North,356,0.0,4.5,97,-99.99,,OVC100,-99.99,VWS V14.01,2013-02-11 23:57:00,
2013-02-11 18:59:00,60.4,59.6,30.15,North,356,0.0,0.0,97,-99.99,,OVC100,-99.99,VWS V14.01,2013-02-11 23:59:00,
2013-02-11 19:01:00,60.4,59.6,30.15,North,356,0.0,4.5,97,-99.99,,OVC100,-99.99,VWS V14.01,2013-02-12 00:01:00,
2013-02-11 19:02:00,60.4,59.6,30.15,North,356,0.0,4.5,97,-99.99,,OVC100,-99.99,VWS V14.01,2013-02-12 00:02:00,
2013-02-11 19:07:00,60.3,59.4,30.15,North,356,0.0,2.7,97,-99.99,,-RA,-99.99,VWS V14.01,2013-02-12 00:07:00,
2013-02-11 19:12:00,60.3,59.4,30.15,North,356,0.0,3.1,97,-99.99,,-RA,-99.99,VWS V14.01,2013-02-12 00:12:00,
2013-02-11 19:13:00,60.3,59.4,30.15,North,356,0.0,6.9,97,-99.99,,-RA,-99.99,VWS V14.01,2013-02-12 00:13:00,
2013-02-11 19:14:00,60.3,59.4,30.15,North,356,0.0,6.9,97,-99.99,,-RA,-99.99,VWS V14.01,2013-02-12 00:14:00,
2013-02-11 19:15:00,60.3,59.4,30.15,North,356,0.0,0.0,97,-99.99,,-RA,-99.99,VWS V14.01,2013-02-12 00:15:00,
2013-02-11 19:17:00,60.4,59.6,30.15,North,356,0.0,0.0,97,-99.99,,-RA,-99.99,VWS V14.01,2013-02-12 00:17:00,
2013-02-11 19:18:00,60.4,59.6,30.15,North,356,3.6,3.6,97,-99.99,,-RA,-99.99,VWS V14.01,2013-02-12 00:18:00,
2013-02-11 19:19:00,60.4,59.6,30.15,North,356,3.1,3.6,97,-99.99,,-RA,-99.99,VWS V14.01,2013-02-12 00:19:00,
2013-02-11 19:20:00,60.4,59.6,30.15,North,356,0.0,0.0,97,-99.99,,-RA,-99.99,VWS V14.01,2013-02-12 00:20:00,
2013-02-11 19:22:00,60.4,59.6,30.15,North,356,0.0,0.0,97,-99.99,,-RA,-99.99,VWS V14.01,2013-02-12 00:22:00,
2013-02-11 19:24:00,60.3,59.4,30.15,North,356,0.0,3.1,97,-99.99,,-RA,-99.99,VWS V14.01,2013-02-12 00:24:00,
2013-02-11 19:27:00,60.3,59.4,30.15,North,356,0.0,0.0,97,-99.99,,-RA,-99.99,VWS V14.01,2013-02-12 00:27:00,
2013-02-11 19:28:00,60.3,59.4,30.15,North,356,0.0,0.0,97,-99.99,,-RA,-99.99,VWS V14.01,2013-02-12 00:28:00,
2013-02-11 19:29:00,60.1,59.2,30.15,North,356,0.0,0.0,97,-99.99,,-RA,-99.99,VWS V14.01,2013-02-12 00:29:00,
2013-02-11 19:33:00,60.1,59.2,30.15,North,356,0.0,0.0,97,-99.99,,-RA,-99.99,VWS V14.01,2013-02-12 00:33:00,
2013-02-11 19:35:00,60.1,59.2,30.15,North,356,0.0,0.0,97,-99.99,,FEW110,-99.99,VWS V14.01,2013-02-12 00:35:00,
2013-02-11 19:39:00,60.1,59.2,30.15,North,356,0.0,0.0,97,-99.99,,FEW110,-99.99,VWS V14.01,2013-02-12 00:39:00,
2013-02-11 19:41:00,60.1,59.2,30.15,North,356,0.0,0.0,97,-99.99,,FEW110,-99.99,VWS V14.01,2013-02-12 00:41:00,
2013-02-11 19:44:00,60.1,59.2,30.15,North,356,0.0,0.0,97,-99.99,,FEW110,-99.99,VWS V14.01,2013-02-12 00:44:00,
2013-02-11 19:45:00,60.1,59.2,30.15,North,356,0.0,0.0,97,-99.99,,FEW110,-99.99,VWS V14.01,2013-02-12 00:45:00,
2013-02-11 19:46:00,60.1,59.2,30.15,North,356,0.0,0.0,97,-99.99,,FEW110,-99.99,VWS V14.01,2013-02-12 00:46:00,
2013-02-11 19:47:00,60.1,59.2,30.15,North,356,0.0,0.0,97,-99.99,,FEW110,-99.99,VWS V14.01,2013-02-12 00:47:00,
2013-02-11 19:50:00,59.9,59.0,30.15,North,356,0.0,0.0,97,-99.99,,FEW110,-99.99,VWS V14.01,2013-02-12 00:50:00,
2013-02-11 19:51:00,59.9,59.0,30.15,North,356,0.0,0.0,97,-99.99,,FEW110,-99.99,VWS V14.01,2013-02-12 00:51:00,
2013-02-11 19:52:00,59.9,59.0,30.15,North,356,0.0,0.0,97,-99.99,,FEW110,-99.99,VWS V14.01,2013-02-12 00:52:00,
2013-02-11 19:54:00,59.7,58.9,30.15,North,356,0.0,0.0,97,-99.99,,FEW110,-99.99,VWS V14.01,2013-02-12 00:54:00,
2013-02-11 19:56:00,59.7,58.9,30.15,North,356,0.0,0.0,97,-99.99,,FEW110,-99.99,VWS V14.01,2013-02-12 00:56:00,
2013-02-11 19:57:00,59.7,58.9,30.15,North,356,0.0,0.0,97,-99.99,,FEW110,-99.99,VWS V14.01,2013-02-12 00:57:00,
2013-02-11 19:58:00,59.7,58.9,30.15,North,356,0.0,0.0,97,-99.99,,FEW110,-99.99,VWS V14.01,2013-02-12 00:58:00,
2013-02-11 20:00:00,59.5,58.7,30.15,North,356,0.0,0.0,97,-99.99,,FEW110,-99.99,VWS V14.01,2013-02-12 01:00:00,
2013-02-11 20:01:00,59.5,58.7,30.15,North,356,0.0,0.0,97,-99.99,,FEW110,-99.99,VWS V14.01,2013-02-12 01:01:00,
2013-02-11 20:03:00,59.5,58.7,30.15,North,356,0.0,0.0,97,-99.99,,FEW110,-99.99,VWS V14.01,2013-02-12 01:03:00,
2013-02-11 20:05:00,59.7,58.9,30.15,North,356,0.0,0.0,97,-99.99,,CLR,-99.99,VWS V14.01,2013-02-12 01:05:00,
2013-02-11 20:07:00,59.7,58.9,30.15,North,356,0.0,0.0,97,-99.99,,CLR,-99.99,VWS V14.01,2013-02-12 01:07:00,
2013-02-11 20:08:00,59.5,58.7,30.15,North,356,0.0,0.0,97,-99.99,,CLR,-99.99,VWS V14.01,2013-02-12 01:08:00,
2013-02-11 20:10:00,59.5,58.7,30.15,North,356,0.0,0.0,97,-99.99,,CLR,-99.99,VWS V14.01,2013-02-12 01:10:00,
2013-02-11 20:11:00,59.5,58.7,30.15,North,356,0.0,0.0,97,-99.99,,CLR,-99.99,VWS V14.01,2013-02-12 01:11:00,
2013-02-11 20:13:00,59.5,58.7,30.15,North,356,0.0,0.0,97,-99.99,,CLR,-99.99,VWS V14.01,2013-02-12 01:13:00,
2013-02-11 20:14:00,59.7,58.9,30.15,North,356,0.0,0.0,97,-99.99,,CLR,-99.99,VWS V14.01,2013-02-12 01:14:00,
2013-02-11 20:15:00,59.7,58.9,30.15,North,356,0.0,0.0,97,-99.99,,CLR,-99.99,VWS V14.01,2013-02-12 01:15:00,
2013-02-11 20:16:00,59.7,58.9,30.15,North,356,0.0,0.0,97,-99.99,,CLR,-99.99,VWS V14.01,2013-02-12 01:16:00,
2013-02-11 20:18:00,59.7,58.9,30.15,North,356,0.0,0.0,97,-99.99,,CLR,-99.99,VWS V14.01,2013-02-12 01:18:00,
2013-02-11 20:19:00,59.7,58.9,30.15,North,356,0.0,0.0,97,-99.99,,CLR,-99.99,VWS V14.01,2013-02-12 01:19:00,
2013-02-11 20:20:00,59.7,58.9,30.15,North,356,0.0,0.0,97,-99.99,,CLR,-99.99,VWS V14.01,2013-02-12 01:20:00,
2013-02-11 20:22:00,59.7,58.9,30.15,North,356,0.0,0.0,97,-99.99,,CLR,-99.99,VWS V14.01,2013-02-12 01:22:00,
2013-02-11 20:24:00,59.5,58.7,30.15,North,356,0.0,0.0,97,-99.99,,CLR,-99.99,VWS V14.01,2013-02-12 01:24:00,
2013-02-11 20:27:00,59.5,58.7,30.15,North,356,0.0,0.0,97,-99.99,,CLR,-99.99,VWS V14.01,2013-02-12 01:27:00,
2013-02-11 20:29:00,59.5,58.7,30.15,North,356,0.0,0.0,97,-99.99,,CLR,-99.99,VWS V14.01,2013-02-12 01:29:00,
2013-02-11 20:32:00,59.5,58.7,30.15,North,356,0.0,0.0,97,-99.99,,CLR,-99.99,VWS V14.01,2013-02-12 01:32:00,
2013-02-11 20:33:00,59.7,58.9,30.15,North,356,0.0,0.0,97,-99.99,,CLR,-99.99,VWS V14.01,2013-02-12 01:33:00,
2013-02-11 20:34:00,59.7,58.9,30.15,North,356,0.0,0.0,97,-99.99,,CLR,-99.99,VWS V14.01,2013-02-12 01:34:00,
2013-02-11 20:38:00,59.7,58.9,30.15,North,356,0.0,0.0,97,-99.99,,CLR,-99.99,VWS V14.01,2013-02-12 01:38:00,
2013-02-11 20:39:00,59.7,58.9,30.15,North,356,0.0,0.0,97,-99.99,,CLR,-99.99,VWS V14.01,2013-02-12 01:39:00,
2013-02-11 20:40:00,59.7,58.9,30.15,North,356,0.0,0.0,97,-99.99,,CLR,-99.99,VWS V14.01,2013-02-12 01:40:00,
2013-02-11 20:43:00,59.7,58.9,30.15,North,356,0.0,0.0,97,-99.99,,CLR,-99.99,VWS V14.01,2013-02-12 01:43:00,
2013-02-11 20:44:00,59.7,58.9,30.15,North,356,0.0,0.0,97,-99.99,,CLR,-99.99,VWS V14.01,2013-02-12 01:44:00,
2013-02-11 20:45:00,59.7,58.9,30.15,North,356,0.0,0.0,97,-99.99,,CLR,-99.99,VWS V14.01,2013-02-12 01:45:00,
2013-02-11 20:46:00,59.7,58.9,30.15,North,356,0.0,0.0,97,-99.99,,CLR,-99.99,VWS V14.01,2013-02-12 01:46:00,
2013-02-11 20:48:00,59.7,58.9,30.15,North,356,0.0,0.0,97,-99.99,,CLR,-99.99,VWS V14.01,2013-02-12 01:48:00,
2013-02-11 20:50:00,59.7,58.9,30.15,North,356,0.0,0.0,97,-99.99,,CLR,-99.99,VWS V14.01,2013-02-12 01:50:00,
2013-02-11 20:51:00,59.7,58.9,30.15,North,356,0.0,0.0,97,-99.99,,CLR,-99.99,VWS V14.01,2013-02-12 01:51:00,
2013-02-11 20:53:00,59.5,58.7,30.15,North,356,0.0,0.0,97,-99.99,,CLR,-99.99,VWS V14.01,2013-02-12 01:53:00,
2013-02-11 20:56:00,59.4,58.5,30.15,North,356,0.0,0.0,97,-99.99,,CLR,-99.99,VWS V14.01,2013-02-12 01:56:00,
2013-02-11 20:57:00,59.4,58.5,30.15,North,356,0.0,0.0,97,-99.99,,CLR,-99.99,VWS V14.01,2013-02-12 01:57:00,
2013-02-11 20:58:00,59.4,58.5,30.15,North,356,0.0,0.0,97,-99.99,,CLR,-99.99,VWS V14.01,2013-02-12 01:58:00,
2013-02-11 21:01:00,59.2,58.3,30.15,North,356,0.0,0.0,97,-99.99,,CLR,-99.99,VWS V14.01,2013-02-12 02:01:00,
2013-02-11 21:02:00,59.2,58.3,30.15,North,356,0.0,0.0,97,-99.99,,CLR,-99.99,VWS V14.01,2013-02-12 02:02:00,
2013-02-11 21:03:00,59.2,58.3,30.15,North,356,0.0,0.0,97,-99.99,,CLR,-99.99,VWS V14.01,2013-02-12 02:03:00,
2013-02-11 21:04:00,59.2,58.3,30.15,North,356,0.0,0.0,97,-99.99,,CLR,-99.99,VWS V14.01,2013-02-12 02:04:00,
2013-02-11 21:07:00,59.2,58.3,30.15,North,356,0.0,0.0,97,-99.99,,CLR,-99.99,VWS V14.01,2013-02-12 02:07:00,
2013-02-11 21:09:00,59.2,58.3,30.15,North,356,0.0,0.0,97,-99.99,,CLR,-99.99,VWS V14.01,2013-02-12 02:09:00,
2013-02-11 21:12:00,59.2,58.3,30.15,North,356,0.0,0.0,97,-99.99,,CLR,-99.99,VWS V14.01,2013-02-12 02:12:00,
2013-02-11 21:14:00,59.2,58.3,30.15,North,356,0.0,0.0,97,-99.99,,CLR,-99.99,VWS V14.01,2013-02-12 02:14:00,
2013-02-11 21:16:00,59.0,58.2,30.15,North,356,0.0,0.0,97,-99.99,,CLR,-99.99,VWS V14.01,2013-02-12 02:16:00,
2013-02-11 21:17:00,59.2,58.3,30.15,North,356,0.0,0.0,97,-99.99,,CLR,-99.99,VWS V14.01,2013-02-12 02:17:00,
2013-02-11 21:19:00,59.0,58.2,30.15,North,356,0.0,0.0,97,-99.99,,CLR,-99.99,VWS V14.01,2013-02-12 02:19:00,
2013-02-11 21:22:00,59.2,58.3,30.15,North,356,0.0,0.0,97,-99.99,,CLR,-99.99,VWS V14.01,2013-02-12 02:22:00,
2013-02-11 21:23:00,59.2,58.3,30.15,North,356,0.0,0.0,97,-99.99,,CLR,-99.99,VWS V14.01,2013-02-12 02:23:00,
2013-02-11 21:24:00,59.0,58.2,30.15,North,356,0.0,0.0,97,-99.99,,CLR,-99.99,VWS V14.01,2013-02-12 02:24:00,
2013-02-11 21:25:00,59.0,58.2,30.15,North,356,0.0,0.0,97,-99.99,,CLR,-99.99,VWS V14.01,2013-02-12 02:25:00,
2013-02-11 21:28:00,58.8,58.0,30.15,North,356,0.0,0.0,97,-99.99,,CLR,-99.99,VWS V14.01,2013-02-12 02:28:00,
2013-02-11 21:30:00,58.8,58.0,30.15,North,356,0.0,0.0,97,-99.99,,CLR,-99.99,VWS V14.01,2013-02-12 02:30:00,
2013-02-11 21:33:00,58.6,57.8,30.15,North,356,0.0,0.0,97,-99.99,,CLR,-99.99,VWS V14.01,2013-02-12 02:33:00,
2013-02-11 21:34:00,58.6,57.8,30.15,North,356,0.0,0.0,97,-99.99,,CLR,-99.99,VWS V14.01,2013-02-12 02:34:00,
2013-02-11 21:35:00,58.6,57.8,30.15,North,356,0.0,0.0,97,-99.99,,CLR,-99.99,VWS V14.01,2013-02-12 02:35:00,
2013-02-11 21:39:00,58.5,57.6,30.15,North,356,0.0,0.0,97,-99.99,,CLR,-99.99,VWS V14.01,2013-02-12 02:39:00,
2013-02-11 21:40:00,58.5,57.6,30.15,North,356,0.0,0.0,97,-99.99,,CLR,-99.99,VWS V14.01,2013-02-12 02:40:00,
2013-02-11 21:41:00,58.3,57.4,30.15,North,356,0.0,0.0,97,-99.99,,CLR,-99.99,VWS V14.01,2013-02-12 02:41:00,
2013-02-11 21:45:00,58.1,57.3,30.15,North,356,0.0,0.0,97,-99.99,,CLR,-99.99,VWS V14.01,2013-02-12 02:45:00,
2013-02-11 21:46:00,57.9,57.1,30.15,North,356,0.0,0.0,97,-99.99,,CLR,-99.99,VWS V14.01,2013-02-12 02:46:00,
2013-02-11 21:51:00,57.9,57.1,30.15,North,356,0.0,0.0,97,-99.99,,FEW030,-99.99,VWS V14.01,2013-02-12 02:51:00,
2013-02-11 21:52:00,57.7,56.9,30.15,North,356,0.0,0.0,97,-99.99,,FEW030,-99.99,VWS V14.01,2013-02-12 02:52:00,
2013-02-11 21:53:00,57.7,56.9,30.15,North,356,0.0,0.0,97,-99.99,,FEW030,-99.99,VWS V14.01,2013-02-12 02:53:00,
2013-02-11 21:56:00,57.7,56.9,30.15,North,356,0.0,0.0,97,-99.99,,FEW030,-99.99,VWS V14.01,2013-02-12 02:56:00,
2013-02-11 21:57:00,57.6,56.7,30.15,North,356,0.0,0.0,97,-99.99,,FEW030,-99.99,VWS V14.01,2013-02-12 02:57:00,
2013-02-11 21:58:00,57.6,56.7,30.15,North,356,0.0,0.0,97,-99.99,,FEW030,-99.99,VWS V14.01,2013-02-12 02:58:00,
2013-02-11 22:01:00,57.6,56.7,30.15,North,356,0.0,0.0,97,-99.99,,FEW030,-99.99,VWS V14.01,2013-02-12 03:01:00,
2013-02-11 22:02:00,57.4,56.5,30.15,North,356,0.0,0.0,97,-99.99,,FEW030,-99.99,VWS V14.01,2013-02-12 03:02:00,
2013-02-11 22:03:00,57.4,56.5,30.15,North,356,0.0,0.0,97,-99.99,,BKN055,-99.99,VWS V14.01,2013-02-12 03:03:00,
2013-02-11 22:07:00,57.2,56.4,30.15,North,356,0.0,0.0,97,-99.99,,BKN055,-99.99,VWS V14.01,2013-02-12 03:07:00,
2013-02-11 22:08:00,57.2,56.4,30.15,North,356,0.0,0.0,97,-99.99,,BKN055,-99.99,VWS V14.01,2013-02-12 03:08:00,
2013-02-11 22:10:00,57.2,56.4,30.15,North,356,0.0,0.0,97,-99.99,,BKN055,-99.99,VWS V14.01,2013-02-12 03:10:00,
2013-02-11 22:12:00,57.2,56.4,30.15,North,356,0.0,0.0,97,-99.99,,BKN055,-99.99,VWS V14.01,2013-02-12 03:12:00,
2013-02-11 22:13:00,57.2,56.4,30.15,North,356,0.0,0.0,97,-99.99,,BKN055,-99.99,VWS V14.01,2013-02-12 03:13:00,
2013-02-11 22:15:00,57.0,56.2,30.15,North,356,0.0,0.0,97,-99.99,,BKN055,-99.99,VWS V14.01,2013-02-12 03:15:00,
2013-02-11 22:16:00,57.0,56.2,30.15,North,356,0.0,0.0,97,-99.99,,BKN055,-99.99,VWS V14.01,2013-02-12 03:16:00,
2013-02-11 22:18:00,57.0,56.2,30.15,North,356,0.0,0.0,97,-99.99,,BKN055,-99.99,VWS V14.01,2013-02-12 03:18:00,
2013-02-11 22:20:00,57.0,56.2,30.15,North,356,0.0,0.0,97,-99.99,,BKN055,-99.99,VWS V14.01,2013-02-12 03:20:00,
2013-02-11 22:21:00,57.0,56.2,30.15,North,356,0.0,0.0,97,-99.99,,BKN055,-99.99,VWS V14.01,2013-02-12 03:21:00,
2013-02-11 22:23:00,56.8,56.0,30.15,North,356,0.0,0.0,97,-99.99,,BKN055,-99.99,VWS V14.01,2013-02-12 03:23:00,
2013-02-11 22:24:00,56.8,56.0,30.15,North,356,0.0,0.0,97,-99.99,,BKN055,-99.99,VWS V14.01,2013-02-12 03:24:00,
2013-02-11 22:26:00,56.8,56.0,30.15,North,356,0.0,0.0,97,-99.99,,BKN055,-99.99,VWS V14.01,2013-02-12 03:26:00,
2013-02-11 22:28:00,57.0,56.2,30.15,North,356,0.0,0.0,97,-99.99,,BKN055,-99.99,VWS V14.01,2013-02-12 03:28:00,
2013-02-11 22:29:00,56.8,55.7,30.15,North,356,0.0,0.0,96,-99.99,,BKN055,-99.99,VWS V14.01,2013-02-12 03:29:00,
2013-02-11 22:33:00,56.8,55.7,30.15,North,356,0.0,0.0,96,-99.99,,BKN055,-99.99,VWS V14.01,2013-02-12 03:33:00,
2013-02-11 22:34:00,56.8,55.7,30.15,North,356,0.0,0.0,96,-99.99,,BKN055,-99.99,VWS V14.01,2013-02-12 03:34:00,
2013-02-11 22:35:00,56.8,55.4,30.15,North,356,0.0,0.0,95,-99.99,,BKN055,-99.99,VWS V14.01,2013-02-12 03:35:00,
2013-02-11 22:38:00,56.7,55.2,30.15,North,356,0.0,0.0,95,-99.99,,BKN055,-99.99,VWS V14.01,2013-02-12 03:38:00,
2013-02-11 22:40:00,56.7,55.2,30.15,North,356,0.0,0.0,95,-99.99,,BKN055,-99.99,VWS V14.01,2013-02-12 03:40:00,
2013-02-11 22:41:00,56.7,55.2,30.15,North,356,0.0,0.0,95,-99.99,,BKN055,-99.99,VWS V14.01,2013-02-12 03:41:00,
2013-02-11 22:44:00,56.7,55.0,30.15,North,356,0.0,0.0,94,-99.99,,BKN055,-99.99,VWS V14.01,2013-02-12 03:44:00,
2013-02-11 22:45:00,56.7,55.0,30.15,North,356,0.0,0.0,94,-99.99,,BKN055,-99.99,VWS V14.01,2013-02-12 03:45:00,
2013-02-11 22:46:00,56.7,55.0,30.15,North,356,0.0,0.0,94,-99.99,,BKN055,-99.99,VWS V14.01,2013-02-12 03:46:00,
2013-02-11 22:50:00,56.5,54.8,30.15,North,356,0.0,0.0,94,-99.99,,BKN055,-99.99,VWS V14.01,2013-02-12 03:50:00,
2013-02-11 22:51:00,56.5,54.8,30.15,North,356,0.0,0.0,94,-99.99,,BKN055,-99.99,VWS V14.01,2013-02-12 03:51:00,
2013-02-11 22:52:00,56.5,54.8,30.15,North,356,0.0,0.0,94,-99.99,,BKN055,-99.99,VWS V14.01,2013-02-12 03:52:00,
2013-02-11 22:53:00,56.5,54.8,30.15,North,356,0.0,0.0,94,-99.99,,BKN055,-99.99,VWS V14.01,2013-02-12 03:53:00,
2013-02-11 22:56:00,56.5,54.8,30.15,North,356,0.0,0.0,94,-99.99,,BKN055,-99.99,VWS V14.01,2013-02-12 03:56:00,
2013-02-11 22:57:00,56.5,54.8,30.15,North,356,0.0,0.0,94,-99.99,,BKN055,-99.99,VWS V14.01,2013-02-12 03:57:00,
2013-02-11 22:58:00,56.5,54.8,30.15,North,356,0.0,0.0,94,-99.99,,BKN055,-99.99,VWS V14.01,2013-02-12 03:58:00,
2013-02-11 23:01:00,56.5,54.5,30.15,North,356,0.0,0.0,93,-99.99,,BKN055,-99.99,VWS V14.01,2013-02-12 04:01:00,
2013-02-11 23:03:00,56.5,54.5,30.15,North,356,0.0,0.0,93,-99.99,,BKN055,-99.99,VWS V14.01,2013-02-12 04:03:00,
2013-02-11 23:04:00,56.5,54.5,30.15,North,356,0.0,0.0,93,-99.99,,BKN055,-99.99,VWS V14.01,2013-02-12 04:04:00,
2013-02-11 23:06:00,56.5,54.5,30.15,North,356,0.0,0.0,93,-99.99,,BKN055,-99.99,VWS V14.01,2013-02-12 04:06:00,
2013-02-11 23:08:00,56.5,54.5,30.15,North,356,0.0,0.0,93,-99.99,,BKN055,-99.99,VWS V14.01,2013-02-12 04:08:00,
2013-02-11 23:09:00,56.3,54.3,30.15,North,356,0.0,0.0,93,-99.99,,BKN055,-99.99,VWS V14.01,2013-02-12 04:09:00,
2013-02-11 23:10:00,56.3,54.3,30.15,North,356,0.0,0.0,93,-99.99,,BKN055,-99.99,VWS V14.01,2013-02-12 04:10:00,
2013-02-11 23:12:00,56.3,54.3,30.15,North,356,0.0,0.0,93,-99.99,,BKN055,-99.99,VWS V14.01,2013-02-12 04:12:00,
2013-02-11 23:14:00,56.5,54.5,30.15,North,356,0.0,0.0,93,-99.99,,CLR,-99.99,VWS V14.01,2013-02-12 04:14:00,
2013-02-11 23:15:00,56.5,54.5,30.15,North,356,0.0,0.0,93,-99.99,,CLR,-99.99,VWS V14.01,2013-02-12 04:15:00,
2013-02-11 23:20:00,56.3,54.0,30.15,North,356,0.0,0.0,92,-99.99,,CLR,-99.99,VWS V14.01,2013-02-12 04:20:00,
2013-02-11 23:21:00,56.3,54.0,30.15,North,356,0.0,0.0,92,-99.99,,CLR,-99.99,VWS V14.01,2013-02-12 04:21:00,
2013-02-11 23:25:00,56.3,54.0,30.15,North,356,0.0,0.0,92,-99.99,,CLR,-99.99,VWS V14.01,2013-02-12 04:25:00,
2013-02-11 23:26:00,56.3,54.0,30.15,North,356,0.0,0.0,92,-99.99,,CLR,-99.99,VWS V14.01,2013-02-12 04:26:00,
2013-02-11 23:27:00,56.3,54.0,30.15,North,356,0.0,0.0,92,-99.99,,CLR,-99.99,VWS V14.01,2013-02-12 04:27:00,
2013-02-11 23:30:00,56.3,54.0,30.15,North,356,0.0,0.0,92,-99.99,,CLR,-99.99,VWS V14.01,2013-02-12 04:30:00,
2013-02-11 23:31:00,56.3,54.0,30.15,North,356,0.0,0.0,92,-99.99,,CLR,-99.99,VWS V14.01,2013-02-12 04:31:00,
2013-02-11 23:32:00,56.3,54.0,30.15,North,356,0.0,0.0,92,-99.99,,CLR,-99.99,VWS V14.01,2013-02-12 04:32:00,
2013-02-11 23:36:00,56.3,54.0,30.15,North,356,0.0,0.0,92,-99.99,,CLR,-99.99,VWS V14.01,2013-02-12 04:36:00,
2013-02-11 23:37:00,56.3,54.3,30.15,North,356,0.0,0.0,93,-99.99,,CLR,-99.99,VWS V14.01,2013-02-12 04:37:00,
2013-02-11 23:41:00,56.3,54.3,30.15,North,356,0.0,0.0,93,-99.99,,CLR,-99.99,VWS V14.01,2013-02-12 04:41:00,
2013-02-11 23:42:00,56.3,54.3,30.15,North,356,0.0,0.0,93,-99.99,,CLR,-99.99,VWS V14.01,2013-02-12 04:42:00,
2013-02-11 23:44:00,56.1,53.8,30.15,North,356,0.0,0.0,92,-99.99,,CLR,-99.99,VWS V14.01,2013-02-12 04:44:00,
2013-02-11 23:47:00,56.1,53.8,30.15,North,356,0.0,0.0,92,-99.99,,CLR,-99.99,VWS V14.01,2013-02-12 04:47:00,
2013-02-11 23:48:00,55.9,53.7,30.15,North,356,0.0,0.0,92,-99.99,,CLR,-99.99,VWS V14.01,2013-02-12 04:48:00,
2013-02-11 23:50:00,55.9,53.7,30.15,North,356,0.0,0.0,92,-99.99,,CLR,-99.99,VWS V14.01,2013-02-12 04:50:00,
2013-02-11 23:52:00,55.9,53.7,30.15,North,356,0.0,0.0,92,-99.99,,CLR,-99.99,VWS V14.01,2013-02-12 04:52:00,
2013-02-11 23:54:00,55.9,53.7,30.15,North,356,0.0,0.0,92,-99.99,,CLR,-99.99,VWS V14.01,2013-02-12 04:54:00,
2013-02-11 23:55:00,55.9,53.7,30.15,North,356,0.0,0.0,92,-99.99,,CLR,-99.99,VWS V14.01,2013-02-12 04:55:00,
2013-02-11 23:58:00,55.8,53.5,30.15,North,356,0.0,0.0,92,-99.99,,CLR,-99.99,VWS V14.01,2013-02-12 04:58:00,
2013-02-11 23:59:00,55.8,53.5,30.15,North,356,0.0,0.0,92,-99.99,,CLR,-99.99,VWS V14.01,2013-02-12 04:59:00,